EW8144 Weather Reports


time (UTC)temp
C
wind
direction
speed
KPH
gust
KPH
rain 1hr
cm
rain 24hr
cm
rain mn
cm
humidity
%
barometer
mb
20260905223628 17 277 3.2 9.7 0.00 0.51 0.00 76 1024.3
20260905223530 17 277 4.8 9.7 0.00 0.51 0.00 76 1024.3
20260905223429 17 277 4.8 9.7 0.00 0.51 0.00 76 1024.3
20260905223259 17 277 4.8 9.7 0.00 0.51 0.00 75 1024.3
20260905223140 17 277 4.8 9.7 0.00 0.51 0.00 76 1024.2
20260905223042 17 277 4.8 9.7 0.00 0.51 0.00 76 1024.3
20260905223015 17 277 4.8 9.7 0.00 0.10 0.00 76 1023.3
20260905222939 17 277 4.8 9.7 0.00 0.51 0.00 76 1024.2
20260905222838 17 277 3.2 4.8 0.00 0.51 0.00 76 1024.2
20260905222740 17 277 3.2 4.8 0.00 0.51 0.00 76 1024.1
20260905222633 17 277 3.2 4.8 0.00 0.51 0.00 76 1024.2
20260905222536 17 277 3.2 4.8 0.00 0.51 0.00 76 1024.1
20260905222435 17 277 1.6 6.4 0.00 0.51 0.00 75 1024.1
20260905222245 17 277 3.2 6.4 0.00 0.51 0.00 75 1024.1
20260905222150 17 277 3.2 6.4 0.00 0.51 0.00 75 1024.1
20260905222053 17 277 3.2 6.4 0.00 0.51 0.00 75 1024.1
20260905222023 17 277 1.6 6.4 0.00 0.10 0.00 75 1023.2
20260905221926 17 277 3.2 9.7 0.00 0.51 0.00 75 1024.0
20260905221825 17 277 4.8 9.7 0.00 0.51 0.00 75 1024.0
20260905221706 17 277 4.8 9.7 0.00 0.51 0.00 75 1024.0
20260905221637 17 277 3.2 9.7 0.00 0.10 0.00 75 1023.1
20260905221558 17 277 3.2 9.7 0.00 0.51 0.00 76 1024.0
20260905221503 17 277 3.2 9.7 0.00 0.51 0.00 75 1023.9
20260905221402 17 277 3.2 9.7 0.00 0.51 0.00 75 1024.0
20260905221233 17 277 3.2 9.7 0.00 0.51 0.00 75 1023.9
20260905221134 17 277 4.8 9.7 0.00 0.51 0.00 76 1023.9
20260905221015 17 277 4.8 6.4 0.00 0.51 0.00 75 1023.9
20260905220843 17 277 3.2 9.7 0.00 0.51 0.00 75 1024.0
20260905220746 17 277 3.2 9.7 0.00 0.51 0.00 75 1024.0
20260905220651 17 277 3.2 9.7 0.00 0.51 0.00 75 1023.9
20260905220555 17 277 3.2 9.7 0.00 0.10 0.00 75 1022.9
20260905220525 17 277 4.8 11.3 0.00 0.51 0.00 75 1023.9
20260905220423 17 277 4.8 11.3 0.00 0.51 0.00 75 1023.9
20260905220304 17 277 4.8 11.3 0.00 0.51 0.00 75 1023.9
20260905220154 17 277 4.8 11.3 0.00 0.51 0.00 75 1023.9
20260905220057 17 277 6.4 11.3 0.00 0.51 0.00 75 1023.9
20260905215943 17 277 6.4 11.3 0.00 0.51 0.00 75 1023.9
20260905215833 17 277 6.4 11.3 0.00 0.51 0.00 76 1023.9
20260905215735 17 277 6.4 11.3 0.00 0.51 0.00 76 1023.9
20260905215616 17 277 6.4 11.3 0.00 0.51 0.00 76 1023.9
20260905215545 17 277 4.8 9.7 0.00 0.10 0.00 76 1022.9
20260905215510 17 277 6.4 9.7 0.00 0.51 0.00 76 1023.8
20260905215408 17 277 6.4 11.3 0.00 0.51 0.10 76 1023.9
20260905215307 17 277 6.4 11.3 0.00 0.51 0.10 76 1023.8
20260905215201 17 277 6.4 11.3 0.00 0.51 0.10 76 1023.8
20260905215104 17 277 4.8 11.3 0.00 0.51 0.10 76 1023.9
20260905214943 17 277 4.8 11.3 0.00 0.51 0.10 76 1023.8
20260905214832 17 277 4.8 11.3 0.00 0.51 0.10 76 1023.8
20260905214714 17 277 6.4 11.3 0.00 0.51 0.10 76 1023.8
20260905214614 17 277 6.4 11.3 0.00 0.51 0.10 76 1023.8
20260905214548 17 277 4.8 11.3 0.00 0.10 0.10 76 1022.9
20260905214513 17 277 4.8 9.7 0.00 0.51 0.10 76 1023.8
20260905214411 17 277 4.8 9.7 0.00 0.51 0.10 76 1023.8
20260905214312 17 277 4.8 11.3 0.00 0.51 0.10 76 1023.8
20260905214203 17 277 6.4 11.3 0.00 0.51 0.10 76 1023.8
20260905214106 17 277 4.8 11.3 0.00 0.51 0.10 76 1023.8
20260905214009 17 277 4.8 11.3 0.00 0.51 0.10 76 1023.8
20260905213859 17 277 4.8 11.3 0.00 0.51 0.10 76 1023.8
20260905213804 17 277 4.8 11.3 0.00 0.51 0.10 76 1023.8
20260905213706 17 276 6.4 11.3 0.00 0.51 0.10 76 1023.8
20260905213610 17 277 6.4 11.3 0.00 0.10 0.10 76 1022.9
20260905213538 17 276 6.4 11.3 0.00 0.51 0.10 76 1023.8
20260905213436 17 276 4.8 6.4 0.00 0.51 0.10 77 1023.7
20260905213317 17 276 3.2 6.4 0.00 0.51 0.10 77 1023.7
20260905213149 17 276 3.2 9.7 0.00 0.51 0.10 77 1023.7
20260905213035 17 276 3.2 9.7 0.00 0.51 0.10 77 1023.7
20260905212940 17 276 3.2 9.7 0.00 0.51 0.10 77 1023.7
20260905212829 17 276 3.2 9.7 0.00 0.51 0.10 77 1023.7
20260905212731 17 276 4.8 9.7 0.00 0.51 0.10 77 1023.7
20260905212632 17 276 4.8 9.7 0.00 0.51 0.10 78 1023.7
20260905212609 17 276 3.2 9.7 0.00 0.10 0.10 78 1022.8
20260905212525 17 276 4.8 9.7 0.00 0.51 0.10 78 1023.7
20260905212427 17 276 6.4 9.7 0.00 0.51 0.10 78 1023.7
20260905212307 17 276 6.4 9.7 0.00 0.51 0.10 78 1023.6
20260905212155 17 276 6.4 9.7 0.00 0.51 0.10 78 1023.6
20260905211727 17 276 4.8 9.7 0.00 0.51 0.10 78 1023.6
20260905211629 17 276 4.8 9.7 0.00 0.51 0.10 78 1023.6
20260905211531 17 276 4.8 9.7 0.00 0.51 0.10 78 1023.6
20260905211406 17 276 4.8 9.7 0.00 0.51 0.10 78 1023.6
20260905211307 17 276 4.8 9.7 0.00 0.51 0.10 78 1023.6
20260905211148 17 276 6.4 9.7 0.00 0.51 0.10 78 1023.6
20260905211126 16 276 4.8 9.7 0.00 0.10 0.10 78 1022.6
20260905211040 17 276 4.8 6.4 0.00 0.51 0.10 78 1023.6
20260905210943 17 276 4.8 6.4 0.00 0.51 0.10 78 1023.6
20260905210841 17 276 4.8 6.4 0.00 0.51 0.10 77 1023.6
20260905210737 17 276 4.8 6.4 0.00 0.51 0.10 77 1023.5
20260905210639 17 276 4.8 6.4 0.00 0.51 0.10 77 1023.5
20260905210541 17 276 4.8 6.4 0.00 0.51 0.10 77 1023.6
20260905210507 17 276 3.2 6.4 0.00 0.10 0.10 77 1022.6
20260905210431 17 276 3.2 6.4 0.00 0.51 0.10 76 1023.5
20260905210143 17 276 3.2 9.7 0.00 0.51 0.10 76 1023.6
20260905210104 17 276 1.6 9.7 0.00 0.10 0.10 76 1022.5
20260905210016 17 276 3.2 9.7 0.00 0.51 0.10 75 1023.5
20260905205919 17 276 4.8 9.7 0.00 0.51 0.10 75 1023.5
20260905205821 17 276 4.8 9.7 0.00 0.51 0.10 75 1023.5
20260905205714 17 276 4.8 9.7 0.00 0.51 0.10 76 1023.5
20260905205616 17 276 4.8 9.7 0.00 0.51 0.10 76 1023.5
20260905205457 17 277 4.8 6.4 0.00 0.51 0.10 77 1023.5
20260905205347 17 277 4.8 6.4 0.00 0.51 0.10 77 1023.5
20260905205226 17 277 4.8 6.4 0.00 0.51 0.10 77 1023.5
20260905205131 17 277 3.2 6.4 0.00 0.51 0.10 77 1023.5
20260905205058 17 277 3.2 6.4 0.00 0.10 0.10 76 1022.5
20260905205023 17 277 3.2 4.8 0.00 0.51 0.10 76 1023.5
20260905204902 17 277 3.2 4.8 0.00 0.51 0.10 76 1023.4
20260905204805 17 277 3.2 4.8 0.00 0.51 0.10 76 1023.5
20260905204658 17 277 3.2 4.8 0.00 0.51 0.10 76 1023.4
20260905204600 17 277 3.2 4.8 0.00 0.51 0.10 75 1023.5
20260905204445 17 277 1.6 4.8 0.00 0.51 0.10 75 1023.4
20260905204336 17 277 1.6 4.8 0.00 0.51 0.10 74 1023.4
20260905204237 17 277 0.0 4.8 0.00 0.51 0.10 74 1023.4
20260905204139 17 277 0.0 4.8 0.00 0.51 0.10 74 1023.4
20260905204044 17 277 0.0 4.8 0.00 0.10 0.10 74 1022.5
20260905204010 17 277 0.0 4.8 0.00 0.51 0.10 74 1023.4
20260905203910 17 277 1.6 4.8 0.00 0.51 0.10 74 1023.5
20260905203812 17 277 1.6 4.8 0.00 0.51 0.10 74 1023.4
20260905203709 17 277 1.6 4.8 0.00 0.51 0.10 74 1023.5
20260905203551 17 277 1.6 4.8 0.00 0.51 0.10 74 1023.5
20260905203454 17 277 0.0 4.8 0.00 0.51 0.10 74 1023.5
20260905203354 17 277 1.6 4.8 0.00 0.51 0.10 74 1023.5
20260905203225 17 277 1.6 4.8 0.00 0.51 0.10 74 1023.5
20260905203127 17 277 3.2 4.8 0.00 0.51 0.10 74 1023.5
20260905203034 17 277 3.2 4.8 0.00 0.51 0.10 74 1023.4
20260905202904 17 277 0.0 4.8 0.00 0.51 0.10 74 1023.4
20260905202807 17 277 0.0 4.8 0.00 0.51 0.10 74 1023.5
20260905202710 17 277 0.0 4.8 0.00 0.51 0.10 73 1023.5
20260905202635 17 277 0.0 4.8 0.00 0.10 0.10 73 1022.5
20260905202603 17 277 0.0 4.8 0.00 0.51 0.10 73 1023.4
20260905202428 17 277 0.0 6.4 0.00 0.51 0.10 73 1023.4
20260905202332 17 277 0.0 6.4 0.00 0.51 0.10 73 1023.3
20260905202210 17 277 3.2 6.4 0.00 0.51 0.10 73 1023.3
20260905202121 17 277 3.2 6.4 0.00 0.10 0.10 73 1022.3
20260905202041 17 277 3.2 6.4 0.00 0.51 0.10 73 1023.3
20260905201943 17 277 3.2 6.4 0.00 0.51 0.10 73 1023.4
20260905201843 17 277 3.2 6.4 0.00 0.51 0.10 73 1023.3
20260905201736 17 277 3.2 6.4 0.00 0.51 0.10 73 1023.3
20260905201637 17 277 1.6 6.4 0.00 0.51 0.10 73 1023.4
20260905201544 17 276 1.6 6.4 0.00 0.51 0.10 73 1023.3
20260905201510 17 276 1.6 6.4 0.00 0.10 0.10 73 1022.3
20260905201437 17 276 4.8 6.4 0.00 0.51 0.10 73 1023.3
20260905201338 17 276 4.8 6.4 0.00 0.51 0.10 73 1023.3
20260905201238 17 276 3.2 6.4 0.00 0.51 0.10 73 1023.3
20260905201003 17 276 3.2 6.4 0.00 0.51 0.10 72 1023.3
20260905200842 17 276 3.2 6.4 0.00 0.51 0.10 72 1023.2
20260905200749 17 276 3.2 9.7 0.00 0.51 0.10 72 1023.2
20260905200621 17 276 4.8 9.7 0.00 0.51 0.10 72 1023.2
20260905200524 17 276 4.8 9.7 0.00 0.51 0.10 72 1023.2
20260905200426 17 276 3.2 9.7 0.00 0.51 0.10 72 1023.2
20260905200317 17 276 4.8 9.7 0.00 0.51 0.10 72 1023.2
20260905200218 18 276 4.8 9.7 0.00 0.51 0.10 72 1023.1
20260905200124 18 277 4.8 9.7 0.00 0.51 0.10 72 1023.1
20260905200045 17 276 4.8 9.7 0.00 0.10 0.10 72 1022.1
20260905200016 18 276 4.8 9.7 0.00 0.51 0.10 72 1023.2
20260905195916 18 276 4.8 9.7 0.00 0.51 0.10 72 1023.2
20260905195818 18 276 4.8 9.7 0.00 0.51 0.10 72 1023.1
20260905195720 18 276 4.8 9.7 0.00 0.51 0.10 72 1023.1
20260905195657 17 276 3.2 9.7 0.00 0.10 0.10 72 1022.1
20260905195611 18 276 4.8 9.7 0.00 0.51 0.10 72 1023.1
20260905195512 18 276 4.8 11.3 0.00 0.51 0.10 72 1023.1
20260905195416 18 276 4.8 11.3 0.00 0.51 0.10 71 1023.0
20260905195307 18 276 4.8 11.3 0.00 0.51 0.10 71 1023.1
20260905195206 18 276 6.4 11.3 0.00 0.51 0.10 72 1023.1
20260905195108 18 276 6.4 11.3 0.00 0.51 0.10 72 1023.1
20260905195020 17 276 4.8 11.3 0.00 0.10 0.10 72 1022.1
20260905194939 18 276 6.4 11.3 0.00 0.51 0.10 72 1023.1
20260905194839 18 280 8.0 11.3 0.00 0.51 0.10 71 1023.0
20260905194725 18 280 8.0 12.9 0.00 0.51 0.10 71 1023.0
20260905194628 18 282 8.0 12.9 0.00 0.51 0.10 72 1023.0
20260905194608 17 282 6.4 12.9 0.00 0.10 0.10 72 1022.0
20260905194520 18 283 6.4 12.9 0.00 0.51 0.10 72 1023.0
20260905194420 18 282 8.0 12.9 0.00 0.51 0.10 72 1023.0
20260905194322 18 283 8.0 12.9 0.00 0.51 0.10 72 1023.0
20260905194151 18 280 8.0 12.9 0.00 0.51 0.10 72 1023.0
20260905194037 18 280 8.0 12.9 0.00 0.51 0.10 72 1023.0
20260905194008 17 281 8.0 12.9 0.00 0.10 0.10 72 1021.9
20260905193931 18 281 8.0 12.9 0.00 0.51 0.10 72 1023.0
20260905193831 18 278 6.4 11.3 0.00 0.51 0.10 72 1022.9
20260905193607 17 278 6.4 9.7 0.00 0.10 0.10 72 1021.8
20260905193531 18 278 6.4 9.7 0.00 0.51 0.10 72 1022.9
20260905193408 18 278 6.4 6.4 0.00 0.51 0.10 72 1022.9
20260905193310 18 269 4.8 6.4 0.00 0.51 0.10 72 1022.9
20260905193215 18 272 4.8 6.4 0.00 0.51 0.10 72 1022.9
20260905193153 17 272 4.8 6.4 0.00 0.10 0.10 72 1021.8
20260905193107 18 260 4.8 6.4 0.00 0.51 0.10 71 1022.9
20260905193009 18 260 3.2 6.4 0.00 0.51 0.10 72 1022.9
20260905192848 18 260 4.8 6.4 0.00 0.51 0.10 71 1022.9
20260905192720 18 260 4.8 6.4 0.00 0.51 0.10 71 1022.9
20260905192538 18 260 4.8 6.4 0.00 0.51 0.10 71 1022.9
20260905192417 18 260 4.8 6.4 0.00 0.51 0.10 71 1022.9
20260905192313 18 260 6.4 6.4 0.00 0.51 0.10 71 1022.9
20260905192152 18 259 4.8 6.4 0.00 0.51 0.10 71 1022.9
20260905192053 18 259 4.8 6.4 0.00 0.51 0.10 71 1023.0
20260905192017 18 259 4.8 6.4 0.00 0.10 0.10 71 1021.9
20260905191945 18 258 4.8 6.4 0.00 0.51 0.10 71 1022.9
20260905191845 18 258 4.8 6.4 0.00 0.51 0.10 71 1022.9
20260905191748 18 258 4.8 8.0 0.00 0.51 0.10 71 1022.9
20260905191655 18 258 4.8 8.0 0.00 0.51 0.10 71 1022.9
20260905191616 18 258 3.2 8.0 0.00 0.10 0.10 71 1021.9
20260905191525 18 258 4.8 8.0 0.00 0.51 0.10 71 1022.9
20260905191428 18 258 4.8 8.0 0.00 0.51 0.10 70 1022.9
20260905191328 18 258 4.8 8.0 0.00 0.51 0.10 70 1022.8
20260905191221 18 258 4.8 8.0 0.00 0.51 0.10 70 1022.9
20260905191122 18 258 4.8 8.0 0.00 0.51 0.10 70 1022.9
20260905191024 18 258 4.8 8.0 0.00 0.51 0.10 70 1022.9
20260905190907 18 258 4.8 8.0 0.00 0.51 0.10 70 1022.8
20260905190800 18 258 4.8 8.0 0.00 0.51 0.10 70 1022.9
20260905190702 18 258 6.4 8.0 0.00 0.51 0.10 70 1022.8
20260905190603 18 258 4.8 8.0 0.00 0.51 0.10 70 1022.8
20260905190536 18 258 4.8 8.0 0.00 0.10 0.10 70 1021.7
20260905190457 18 258 4.8 8.0 0.00 0.51 0.10 70 1022.8
20260905190356 18 258 6.4 8.0 0.00 0.51 0.10 70 1022.7
20260905190200 18 258 4.8 8.0 0.00 0.10 0.10 69 1021.7
20260905190104 18 258 6.4 11.3 0.00 0.51 0.10 69 1022.7
20260905190005 18 258 6.4 11.3 0.00 0.51 0.10 69 1022.7
20260905185904 18 258 4.8 12.9 0.00 0.51 0.10 69 1022.7
20260905185806 18 259 4.8 12.9 0.00 0.51 0.10 69 1022.7
20260905185659 18 258 6.4 12.9 0.00 0.51 0.10 69 1022.8
20260905185601 18 258 6.4 12.9 0.00 0.51 0.10 69 1022.7
20260905185508 18 258 8.0 12.9 0.00 0.51 0.10 69 1022.7
20260905185337 19 259 6.4 12.9 0.00 0.51 0.10 68 1022.7
20260905185240 19 255 6.4 12.9 0.00 0.51 0.10 68 1022.7
20260905185142 19 255 6.4 12.9 0.00 0.51 0.10 68 1022.6
20260905185107 18 255 6.4 12.9 0.00 0.10 0.10 68 1021.5
20260905185035 19 255 8.0 12.9 0.00 0.51 0.10 68 1022.6
20260905184937 19 257 6.4 11.3 0.00 0.51 0.10 68 1022.6
20260905184834 19 258 6.4 11.3 0.00 0.51 0.10 68 1022.5
20260905184741 19 258 6.4 11.3 0.00 0.51 0.10 68 1022.5
20260905184656 19 258 4.8 11.3 0.00 0.10 0.10 68 1021.4
20260905184444 19 259 8.0 14.5 0.00 0.51 0.10 67 1022.5
20260905184343 19 259 6.4 14.5 0.00 0.51 0.10 67 1022.5
20260905184234 20 266 6.4 14.5 0.00 0.51 0.10 67 1022.5
20260905184136 20 261 4.8 14.5 0.00 0.51 0.10 67 1022.5
20260905184039 20 263 4.8 14.5 0.00 0.51 0.10 67 1022.5
20260905184021 19 263 4.8 14.5 0.00 0.10 0.10 67 1021.4
20260905183936 20 263 6.4 17.7 0.00 0.51 0.10 67 1022.5
20260905183813 20 263 9.7 19.3 0.00 0.51 0.10 67 1022.4
20260905183715 20 265 9.7 19.3 0.00 0.51 0.10 66 1022.4
20260905183642 20 264 8.0 19.3 0.00 0.10 0.10 66 1021.3
20260905183608 20 263 9.7 19.3 0.00 0.51 0.10 66 1022.4
20260905183512 20 263 9.7 19.3 0.00 0.51 0.10 66 1022.4
20260905183352 20 264 11.3 20.9 0.00 0.51 0.10 66 1022.3
20260905183257 20 258 12.9 20.9 0.00 0.51 0.10 66 1022.3
20260905183151 20 263 12.9 20.9 0.00 0.51 0.10 66 1022.3
20260905183054 20 276 14.5 20.9 0.00 0.51 0.10 66 1022.3
20260905182957 20 255 14.5 20.9 0.00 0.51 0.10 66 1022.3
20260905182847 20 269 14.5 20.9 0.00 0.51 0.10 66 1022.2
20260905182748 20 269 14.5 20.9 0.00 0.51 0.10 66 1022.2
20260905182608 20 266 12.9 20.9 0.00 0.51 0.10 65 1022.2
20260905182538 20 284 11.3 20.9 0.00 0.10 0.10 65 1021.0
20260905182505 20 267 11.3 20.9 0.00 0.51 0.10 66 1022.2
20260905182404 20 275 12.9 20.9 0.00 0.51 0.10 65 1022.1
20260905182243 20 259 12.9 27.4 0.00 0.51 0.10 65 1022.1
20260905182124 20 255 14.5 27.4 0.00 0.51 0.10 65 1022.1
20260905182059 20 267 14.5 27.4 0.00 0.10 0.10 65 1020.9
20260905182017 20 263 14.5 27.4 0.00 0.51 0.10 65 1022.0
20260905181916 20 249 14.5 27.4 0.00 0.51 0.10 65 1022.0
20260905181822 20 267 14.5 27.4 0.00 0.51 0.10 65 1022.0
20260905181715 20 250 16.1 27.4 0.00 0.51 0.10 65 1022.0
20260905181617 20 262 17.7 27.4 0.00 0.51 0.10 65 1022.0
20260905181520 20 263 19.3 27.4 0.00 0.51 0.10 65 1022.0
20260905181419 20 251 16.1 33.8 0.00 0.51 0.10 65 1021.9
20260905181313 20 261 17.7 33.8 0.00 0.51 0.10 65 1021.9
20260905181213 20 263 16.1 33.8 0.00 0.51 0.10 65 1021.9
20260905181119 20 266 14.5 33.8 0.00 0.51 0.10 65 1021.9
20260905181030 20 264 14.5 33.8 0.00 0.10 0.10 65 1020.9
20260905180951 20 268 16.1 33.8 0.00 0.51 0.10 65 1021.9
20260905180830 20 276 17.7 33.8 0.00 0.51 0.10 65 1021.9
20260905180730 20 259 19.3 33.8 0.00 0.51 0.10 65 1021.9
20260905180657 20 259 17.7 33.8 0.00 0.10 0.10 65 1020.8
20260905180624 20 268 17.7 33.8 0.00 0.51 0.10 65 1021.8
20260905180504 20 253 17.7 25.7 0.00 0.51 0.10 65 1021.8
20260905180407 20 268 17.7 25.7 0.00 0.51 0.10 65 1021.8
20260905180310 20 249 19.3 25.7 0.00 0.51 0.10 65 1021.8
20260905180202 20 259 19.3 25.7 0.00 0.51 0.10 65 1021.8
20260905180105 20 257 19.3 25.7 0.00 0.51 0.10 65 1021.7
20260905180007 20 261 19.3 25.7 0.00 0.51 0.10 65 1021.7
20260905175857 21 253 17.7 25.7 0.00 0.51 0.10 65 1021.7
20260905175759 21 247 16.1 25.7 0.00 0.51 0.10 65 1021.6
20260905175644 21 251 16.1 25.7 0.00 0.51 0.10 65 1021.6
20260905175606 20 261 16.1 25.7 0.00 0.10 0.10 65 1020.6
20260905175407 21 247 16.1 32.2 0.00 0.51 0.10 65 1021.6
20260905175309 21 257 17.7 32.2 0.00 0.51 0.10 65 1021.6
20260905175150 21 273 19.3 32.2 0.00 0.51 0.10 65 1021.6
20260905175125 20 247 17.7 32.2 0.00 0.10 0.10 65 1020.5
20260905175042 21 260 19.3 32.2 0.00 0.51 0.10 65 1021.6
20260905174945 21 274 17.7 32.2 0.00 0.51 0.10 65 1021.6
20260905174849 21 250 20.9 32.2 0.00 0.51 0.10 65 1021.5
20260905174722 21 261 24.1 32.2 0.00 0.51 0.10 65 1021.5
20260905174625 21 269 22.5 32.2 0.00 0.51 0.10 65 1021.5
20260905174528 21 249 19.3 27.4 0.00 0.51 0.10 66 1021.5
20260905174417 21 276 19.3 27.4 0.00 0.51 0.10 66 1021.4
20260905174319 21 263 17.7 27.4 0.00 0.51 0.10 66 1021.4
20260905174223 21 263 17.7 27.4 0.00 0.51 0.10 66 1021.4
20260905174147 20 271 16.1 27.4 0.00 0.10 0.10 66 1020.3
20260905174116 21 267 19.3 27.4 0.00 0.51 0.10 66 1021.4
20260905174020 21 260 22.5 27.4 0.00 0.51 0.10 66 1021.4
20260905173919 21 243 22.5 27.4 0.00 0.51 0.10 66 1021.4
20260905173810 21 265 17.7 24.1 0.00 0.51 0.10 66 1021.4
20260905173712 21 276 19.3 24.1 0.00 0.51 0.10 66 1021.3
20260905173614 21 272 17.7 24.1 0.00 0.51 0.10 66 1021.3
20260905173520 21 261 16.1 24.1 0.00 0.51 0.10 66 1021.3
20260905173411 21 264 14.5 20.9 0.00 0.51 0.10 66 1021.3
20260905173313 21 274 14.5 20.9 0.00 0.51 0.10 66 1021.3
20260905173213 21 256 14.5 20.9 0.00 0.51 0.10 66 1021.3
20260905173119 21 258 12.9 20.9 0.00 0.10 0.10 66 1020.1
20260905173046 21 250 12.9 20.9 0.00 0.51 0.10 66 1021.3
20260905172949 21 263 12.9 20.9 0.00 0.51 0.10 65 1021.3
20260905172833 21 273 16.1 20.9 0.00 0.51 0.10 65 1021.2
20260905172715 21 257 16.1 20.9 0.00 0.51 0.10 65 1021.3
20260905172649 21 250 14.5 20.9 0.00 0.10 0.10 65 1020.1
20260905172609 21 270 14.5 19.3 0.00 0.51 0.10 64 1021.3
20260905172511 21 268 16.1 22.5 0.00 0.51 0.10 64 1021.2
20260905172411 21 272 14.5 22.5 0.00 0.51 0.10 64 1021.3
20260905172241 21 270 14.5 24.1 0.00 0.51 0.10 64 1021.3
20260905171957 21 274 14.5 24.1 0.00 0.51 0.10 63 1021.2
20260905171848 21 272 16.1 24.1 0.00 0.51 0.10 63 1021.2
20260905171750 21 280 16.1 24.1 0.00 0.51 0.10 62 1021.2
20260905171630 21 265 16.1 24.1 0.00 0.51 0.10 62 1021.3
20260905171615 21 264 16.1 24.1 0.00 0.10 0.10 62 1020.1
20260905171523 21 257 19.3 24.1 0.00 0.51 0.10 62 1021.3
20260905171426 21 272 17.7 24.1 0.00 0.51 0.10 62 1021.2
20260905171325 21 253 16.1 24.1 0.00 0.51 0.10 62 1021.2
20260905171230 22 270 17.7 24.1 0.00 0.51 0.10 62 1021.2
20260905171143 21 249 16.1 24.1 0.00 0.10 0.10 62 1020.1
20260905171103 22 271 17.7 24.1 0.00 0.51 0.10 61 1021.2
20260905171006 22 259 17.7 25.7 0.00 0.51 0.10 61 1021.2
20260905170904 22 259 19.3 27.4 0.00 0.51 0.10 61 1021.2
20260905170758 22 272 17.7 27.4 0.00 0.51 0.10 61 1021.2
20260905170701 22 261 17.7 27.4 0.00 0.51 0.10 60 1021.2
20260905170606 22 276 17.7 27.4 0.00 0.51 0.10 60 1021.2
20260905170534 22 274 17.7 27.4 0.00 0.10 0.10 60 1020.1
20260905170459 22 271 17.7 27.4 0.00 0.51 0.10 60 1021.2
20260905170337 22 272 17.7 27.4 0.00 0.51 0.10 60 1021.1
20260905170216 22 286 20.9 27.4 0.00 0.51 0.10 59 1021.1
20260905170146 22 270 20.9 27.4 0.00 0.10 0.10 59 1019.9
20260905170108 22 265 20.9 27.4 0.00 0.51 0.10 59 1021.1
20260905170010 22 272 17.7 27.4 0.00 0.51 0.10 59 1021.2
20260905165910 22 255 17.7 25.7 0.00 0.51 0.10 59 1021.1
20260905165808 22 288 16.1 32.2 0.00 0.51 0.10 59 1021.2
20260905165650 22 265 16.1 32.2 0.00 0.51 0.10 59 1021.2
20260905165552 22 269 16.1 32.2 0.00 0.51 0.10 59 1021.2
20260905165515 22 270 17.7 32.2 0.00 0.10 0.10 59 1020.0
20260905165445 22 278 17.7 32.2 0.00 0.51 0.10 59 1021.2
20260905165345 22 270 17.7 32.2 0.00 0.51 0.10 59 1021.2
20260905165247 22 268 19.3 32.2 0.00 0.51 0.10 58 1021.2
20260905165132 22 286 20.9 32.2 0.00 0.51 0.10 58 1021.1
20260905165106 22 279 22.5 32.2 0.00 0.10 0.10 58 1020.0
20260905165025 22 259 25.7 32.2 0.00 0.51 0.10 58 1021.2
20260905164928 22 275 25.7 32.2 0.00 0.51 0.10 58 1021.1
20260905164825 22 288 24.1 32.2 0.00 0.51 0.10 58 1021.1
20260905164635 22 255 22.5 33.8 0.00 0.51 0.10 58 1021.0
20260905164536 22 265 20.9 33.8 0.00 0.51 0.10 58 1021.0
20260905164416 22 278 22.5 33.8 0.00 0.51 0.10 57 1021.1
20260905164313 22 263 25.7 33.8 0.00 0.51 0.10 58 1021.0
20260905164134 22 262 25.7 33.8 0.00 0.51 0.10 57 1021.0
20260905164102 22 266 24.1 33.8 0.00 0.10 0.10 57 1019.9
20260905164026 23 257 25.7 33.8 0.00 0.51 0.10 57 1021.1
20260905163906 23 238 29.0 33.8 0.00 0.51 0.10 57 1021.0
20260905163809 23 255 29.0 33.8 0.00 0.51 0.10 57 1021.0
20260905163701 23 275 25.7 37.0 0.00 0.51 0.10 57 1021.0
20260905163547 23 255 22.5 37.0 0.00 0.51 0.10 57 1021.1
20260905163428 23 268 24.1 38.6 0.00 0.51 0.10 57 1021.1
20260905163318 23 275 25.7 38.6 0.00 0.51 0.10 57 1021.1
20260905163158 23 274 24.1 38.6 0.00 0.51 0.10 57 1021.0
20260905163039 23 261 25.7 38.6 0.00 0.51 0.10 57 1021.0
20260905162937 23 272 27.4 38.6 0.00 0.51 0.10 57 1021.0
20260905162813 23 268 27.4 38.6 0.00 0.51 0.10 57 1021.1
20260905162715 23 294 29.0 38.6 0.00 0.51 0.10 57 1021.0
20260905162618 23 292 30.6 38.6 0.00 0.51 0.10 57 1021.1
20260905162551 22 278 29.0 38.6 0.00 0.10 0.10 57 1019.9
20260905162511 23 272 27.4 38.6 0.00 0.51 0.10 57 1021.0
20260905162409 23 267 27.4 38.6 0.00 0.51 0.10 57 1021.1
20260905162311 23 270 29.0 38.6 0.00 0.51 0.10 57 1021.0
20260905162158 23 266 25.7 38.6 0.00 0.51 0.10 57 1021.0
20260905162101 23 275 24.1 38.6 0.00 0.51 0.10 57 1021.0
20260905162003 23 259 29.0 38.6 0.00 0.51 0.10 57 1021.0
20260905161854 23 251 30.6 38.6 0.00 0.51 0.10 57 1021.0
20260905161755 23 265 27.4 38.6 0.00 0.51 0.10 57 1021.0
20260905161657 23 274 25.7 38.6 0.00 0.51 0.10 57 1021.0
20260905161621 22 267 25.7 38.6 0.00 0.10 0.10 57 1019.8
20260905161550 23 261 27.4 38.6 0.00 0.51 0.10 57 1021.0
20260905161456 23 292 29.0 46.7 0.00 0.51 0.10 57 1020.9
20260905161355 23 282 29.0 46.7 0.00 0.51 0.10 57 1021.0
20260905161236 23 271 29.0 46.7 0.00 0.51 0.10 57 1021.0
20260905161103 23 278 29.0 46.7 0.00 0.51 0.10 56 1020.9
20260905161005 23 236 27.4 46.7 0.00 0.51 0.10 57 1020.9
20260905160907 23 263 29.0 46.7 0.00 0.51 0.10 57 1021.0
20260905160758 23 269 33.8 46.7 0.00 0.51 0.10 56 1021.0
20260905160703 23 259 33.8 46.7 0.00 0.51 0.10 56 1020.9
20260905160606 23 274 32.2 41.8 0.00 0.51 0.10 56 1020.9
20260905160539 23 247 29.0 41.8 0.00 0.10 0.10 56 1019.7
20260905160501 23 265 27.4 41.8 0.00 0.51 0.10 56 1020.8
20260905160401 23 281 24.1 41.8 0.00 0.51 0.10 56 1020.9
20260905160303 23 268 24.1 41.8 0.00 0.51 0.10 56 1020.9
20260905160153 23 276 24.1 48.3 0.00 0.51 0.10 57 1020.9
20260905160058 23 303 24.1 48.3 0.00 0.51 0.10 57 1020.9
20260905160000 23 255 22.5 48.3 0.00 0.51 0.10 57 1021.0
20260905155829 23 256 25.7 48.3 0.00 0.51 0.10 57 1020.9
20260905155731 23 243 32.2 48.3 0.00 0.51 0.10 56 1020.9
20260905155632 23 268 33.8 48.3 0.00 0.51 0.10 57 1020.9
20260905155604 23 272 33.8 48.3 0.00 0.10 0.10 57 1019.7
20260905155526 23 267 37.0 48.3 0.00 0.51 0.10 56 1020.9
20260905155426 23 263 35.4 48.3 0.00 0.51 0.10 56 1020.9
20260905155311 23 277 37.0 49.9 0.00 0.51 0.10 56 1020.9
20260905155204 23 270 37.0 49.9 0.00 0.51 0.10 56 1020.9
20260905155103 23 243 37.0 49.9 0.00 0.51 0.10 55 1020.9
20260905155004 23 265 32.2 49.9 0.00 0.51 0.10 55 1020.9
20260905154904 23 287 27.4 45.1 0.00 0.51 0.10 57 1020.9
20260905154757 23 282 30.6 45.1 0.00 0.51 0.10 56 1020.9
20260905154642 23 280 32.2 45.1 0.00 0.51 0.10 56 1020.9
20260905154544 23 275 32.2 45.1 0.00 0.51 0.10 56 1020.9
20260905154517 23 257 32.2 45.1 0.00 0.10 0.10 56 1019.7
20260905154438 23 270 35.4 48.3 0.00 0.51 0.10 56 1020.9
20260905154339 23 279 33.8 48.3 0.00 0.51 0.10 56 1021.0
20260905154238 23 276 29.0 48.3 0.00 0.51 0.10 57 1020.9
20260905154131 23 266 27.4 48.3 0.00 0.51 0.10 57 1020.9
20260905154015 23 278 30.6 48.3 0.00 0.51 0.10 57 1020.9
20260905153919 23 278 32.2 48.3 0.00 0.51 0.10 56 1020.8
20260905153750 23 259 33.8 48.3 0.00 0.51 0.10 56 1020.9
20260905153633 23 264 32.2 48.3 0.00 0.51 0.10 56 1020.8
20260905153557 23 282 32.2 48.3 0.00 0.10 0.10 56 1019.6
20260905153527 23 278 32.2 48.3 0.00 0.51 0.10 56 1020.8
20260905153426 23 277 35.4 48.3 0.00 0.51 0.10 56 1020.8
20260905153306 23 251 33.8 48.3 0.00 0.51 0.10 56 1020.8
20260905153200 23 267 29.0 45.1 0.00 0.51 0.10 56 1020.8
20260905153101 23 260 27.4 41.8 0.00 0.51 0.10 56 1020.8
20260905153004 23 263 29.0 41.8 0.00 0.51 0.10 56 1020.8
20260905152842 23 286 29.0 51.5 0.00 0.51 0.10 56 1020.8
20260905152734 23 256 32.2 51.5 0.00 0.51 0.10 57 1020.8
20260905152615 23 284 33.8 51.5 0.00 0.51 0.10 56 1020.8
20260905152523 23 273 32.2 51.5 0.00 0.51 0.10 56 1020.8
20260905152412 23 270 25.7 51.5 0.00 0.51 0.10 57 1020.7
20260905152315 23 265 29.0 51.5 0.00 0.51 0.10 56 1020.7
20260905152216 23 269 33.8 51.5 0.00 0.51 0.10 56 1020.7
20260905152149 23 263 33.8 51.5 0.00 0.10 0.10 56 1019.5
20260905152108 23 272 32.2 51.5 0.00 0.51 0.10 56 1020.6
20260905152010 23 262 27.4 40.2 0.00 0.51 0.10 56 1020.7
20260905151910 23 268 22.5 40.2 0.00 0.51 0.10 56 1020.7
20260905151807 23 243 27.4 46.7 0.00 0.51 0.10 57 1020.7
20260905151710 23 263 29.0 46.7 0.00 0.51 0.10 57 1020.7
20260905151612 23 267 29.0 46.7 0.00 0.51 0.10 57 1020.7
20260905151543 23 272 27.4 46.7 0.00 0.10 0.10 57 1019.5
20260905151505 23 269 29.0 46.7 0.00 0.51 0.10 57 1020.6
20260905151405 23 278 27.4 46.7 0.00 0.51 0.10 57 1020.7
20260905151307 23 282 25.7 46.7 0.00 0.51 0.10 56 1020.7
20260905151201 23 257 29.0 46.7 0.00 0.51 0.10 56 1020.7
20260905151103 23 238 32.2 46.7 0.00 0.51 0.10 56 1020.8
20260905151006 23 273 32.2 46.7 0.00 0.51 0.10 56 1020.6
20260905150857 23 278 29.0 46.7 0.00 0.51 0.10 56 1020.7
20260905150758 23 264 25.7 46.7 0.00 0.51 0.10 57 1020.6
20260905150701 23 269 29.0 46.7 0.00 0.51 0.10 57 1020.7
20260905150621 23 283 30.6 46.7 0.00 0.51 0.10 57 1020.7
20260905150529 23 262 30.6 46.7 0.00 0.51 0.10 57 1020.6
20260905150357 23 256 27.4 43.5 0.00 0.51 0.10 57 1020.7
20260905150259 23 268 29.0 43.5 0.00 0.51 0.10 58 1020.7
20260905150132 23 253 30.6 43.5 0.00 0.51 0.10 57 1020.6
20260905150037 23 272 29.0 40.2 0.00 0.51 0.10 58 1020.7
20260905145937 23 250 29.0 40.2 0.00 0.51 0.10 57 1020.7
20260905145813 23 259 27.4 40.2 0.00 0.51 0.10 58 1020.8
20260905145633 23 254 25.7 40.2 0.00 0.51 0.10 59 1020.7
20260905145607 23 280 25.7 37.0 0.00 0.10 0.10 59 1019.5
20260905145526 23 249 29.0 37.0 0.00 0.51 0.10 58 1020.7
20260905145430 23 262 29.0 37.0 0.00 0.51 0.10 59 1020.6
20260905145329 23 274 27.4 38.6 0.00 0.51 0.10 59 1020.6
20260905145221 23 256 27.4 38.6 0.00 0.51 0.10 60 1020.7
20260905145127 23 271 25.7 38.6 0.00 0.51 0.10 60 1020.8
20260905145028 22 253 25.7 38.6 0.00 0.51 0.10 60 1020.7
20260905144919 22 279 24.1 38.6 0.00 0.51 0.10 60 1020.8
20260905144819 22 280 24.1 38.6 0.00 0.51 0.10 60 1020.9
20260905144720 22 306 27.4 38.6 0.00 0.51 0.10 59 1020.9
20260905144627 22 280 25.7 38.6 0.00 0.10 0.10 59 1019.6
20260905144551 22 276 29.0 38.6 0.00 0.51 0.10 59 1020.7
20260905144453 22 280 29.0 38.6 0.00 0.51 0.10 59 1020.9
20260905144357 22 276 27.4 41.8 0.00 0.51 0.10 59 1020.8
20260905144259 22 273 25.7 41.8 0.00 0.51 0.10 59 1020.8
20260905144131 22 271 25.7 41.8 0.00 0.51 0.10 59 1020.9
20260905144033 22 267 29.0 41.8 0.00 0.51 0.10 59 1020.9
20260905143911 22 272 27.4 41.8 0.00 0.51 0.10 59 1020.9
20260905143805 22 238 24.1 41.8 0.00 0.51 0.10 59 1020.9
20260905143650 23 259 24.1 41.8 0.00 0.51 0.10 60 1021.0
20260905143552 23 255 27.4 41.8 0.00 0.51 0.10 59 1020.9
20260905143525 22 261 27.4 41.8 0.00 0.10 0.10 59 1019.6
20260905143445 23 267 27.4 41.8 0.00 0.51 0.10 58 1020.9
20260905143346 23 285 27.4 38.6 0.00 0.51 0.10 58 1020.9
20260905143247 23 286 29.0 38.6 0.00 0.51 0.10 58 1020.8
20260905143157 22 276 27.4 40.2 0.00 0.10 0.10 58 1019.5
20260905143120 23 276 27.4 40.2 0.00 0.51 0.10 58 1020.7
20260905143021 23 282 30.6 40.2 0.00 0.51 0.10 58 1020.9
20260905142927 23 292 29.0 43.5 0.00 0.51 0.10 58 1020.8
20260905142818 23 254 30.6 43.5 0.00 0.51 0.10 58 1020.9
20260905142719 23 272 30.6 43.5 0.00 0.51 0.10 57 1020.7
20260905142621 23 272 30.6 43.5 0.00 0.51 0.10 57 1020.7
20260905142543 23 276 30.6 43.5 0.00 0.10 0.10 57 1019.6
20260905142452 23 251 30.6 43.5 0.00 0.51 0.10 57 1020.9
20260905142353 23 271 32.2 43.5 0.00 0.51 0.10 57 1020.8
20260905142300 23 276 33.8 43.5 0.00 0.51 0.10 57 1020.9
20260905142159 23 269 32.2 43.5 0.00 0.51 0.10 57 1020.8
20260905142136 23 259 30.6 43.5 0.00 0.10 0.10 56 1019.5
20260905142051 23 251 30.6 43.5 0.00 0.51 0.10 57 1020.7
20260905141953 23 209 29.0 41.8 0.00 0.51 0.10 57 1020.8
20260905141841 23 251 32.2 41.8 0.00 0.51 0.10 56 1020.8
20260905141743 23 265 32.2 41.8 0.00 0.51 0.10 56 1020.7
20260905141646 23 265 29.0 38.6 0.00 0.51 0.10 56 1020.8
20260905141552 23 270 27.4 38.6 0.00 0.51 0.10 56 1020.7
20260905141525 23 252 27.4 38.6 0.00 0.10 0.10 56 1019.5
20260905141313 23 251 29.0 38.6 0.00 0.51 0.10 57 1020.8
20260905141214 23 267 29.0 40.2 0.00 0.51 0.10 57 1020.8
20260905141150 23 244 25.7 40.2 0.00 0.10 0.10 57 1019.5
20260905141044 23 256 25.7 40.2 0.00 0.51 0.10 57 1020.9
20260905140947 23 255 27.4 40.2 0.00 0.51 0.10 57 1020.8
20260905140824 23 265 22.5 40.2 0.00 0.51 0.10 58 1020.8
20260905140720 23 258 22.5 40.2 0.00 0.51 0.10 58 1020.8
20260905140622 23 263 24.1 40.2 0.00 0.51 0.10 57 1020.9
20260905140525 23 268 29.0 40.2 0.00 0.51 0.10 57 1020.8
20260905140355 23 251 29.0 40.2 0.00 0.51 0.10 58 1020.8
20260905140257 23 263 27.4 45.1 0.00 0.51 0.10 58 1020.7
20260905140156 23 269 27.4 45.1 0.00 0.51 0.10 58 1020.7
20260905140130 23 255 27.4 45.1 0.00 0.10 0.10 58 1019.5
20260905140034 23 272 27.4 46.7 0.00 0.51 0.10 58 1020.8
20260905135934 23 284 29.0 46.7 0.00 0.51 0.10 58 1020.7
20260905135825 23 261 30.6 46.7 0.00 0.51 0.10 57 1020.7
20260905135727 23 253 29.0 46.7 0.00 0.51 0.10 57 1020.8
20260905135629 23 269 29.0 46.7 0.00 0.51 0.10 57 1020.7
20260905135558 23 274 29.0 46.7 0.00 0.10 0.10 57 1019.6
20260905135523 23 280 32.2 46.7 0.00 0.51 0.10 57 1020.8
20260905135427 23 270 33.8 46.7 0.00 0.51 0.10 57 1020.7
20260905135307 23 255 33.8 46.7 0.00 0.51 0.10 57 1020.7
20260905135154 23 269 32.2 45.1 0.00 0.51 0.10 57 1020.7
20260905135055 23 257 33.8 45.1 0.00 0.51 0.10 57 1020.8
20260905134958 23 251 32.2 45.1 0.00 0.51 0.10 57 1020.8
20260905134848 23 257 32.2 45.1 0.00 0.51 0.10 56 1020.9
20260905134734 23 252 33.8 45.1 0.00 0.51 0.10 57 1020.8
20260905134639 23 295 32.2 43.5 0.00 0.51 0.10 57 1020.8
20260905134617 23 257 32.2 43.5 0.00 0.10 0.10 57 1019.5
20260905134531 23 265 32.2 43.5 0.00 0.51 0.10 57 1020.9
20260905134410 23 267 33.8 43.5 0.00 0.51 0.10 56 1020.9
20260905134312 23 259 33.8 43.5 0.00 0.51 0.10 56 1020.9
20260905134202 23 261 32.2 43.5 0.00 0.51 0.10 56 1020.9
20260905133918 23 257 29.0 41.8 0.00 0.51 0.10 57 1021.0
20260905133812 23 279 29.0 40.2 0.00 0.51 0.10 56 1020.9
20260905133715 23 272 27.4 40.2 0.00 0.51 0.10 56 1021.1
20260905133616 23 278 25.7 35.4 0.00 0.51 0.10 58 1021.0
20260905133555 23 291 25.7 35.4 0.00 0.10 0.10 58 1019.7
20260905133509 23 255 25.7 37.0 0.00 0.51 0.10 58 1021.0
20260905133408 23 270 25.7 37.0 0.00 0.51 0.10 57 1021.0
20260905133309 23 265 25.7 37.0 0.00 0.51 0.10 58 1021.0
20260905133204 23 274 20.9 33.8 0.00 0.51 0.10 59 1021.1
20260905133045 23 282 20.9 37.0 0.00 0.51 0.10 58 1020.9
20260905132948 23 276 22.5 37.0 0.00 0.51 0.10 59 1021.0
20260905132839 23 272 24.1 37.0 0.00 0.51 0.10 58 1021.0
20260905132740 23 258 24.1 37.0 0.00 0.51 0.10 58 1021.1
20260905132643 23 260 24.1 37.0 0.00 0.51 0.10 58 1021.1
20260905132618 23 313 24.1 37.0 0.00 0.10 0.10 58 1019.8
20260905132539 23 272 24.1 37.0 0.00 0.51 0.10 58 1021.2
20260905132438 23 261 25.7 37.0 0.00 0.51 0.10 58 1021.2
20260905132319 23 264 25.7 37.0 0.00 0.51 0.10 58 1021.2
20260905132211 23 268 20.9 37.0 0.00 0.51 0.10 59 1021.2
20260905132113 23 282 20.9 37.0 0.00 0.51 0.10 59 1021.2
20260905131953 23 262 20.9 37.0 0.00 0.51 0.10 59 1021.2
20260905131844 23 261 20.9 37.0 0.00 0.51 0.10 59 1021.2
20260905131749 23 266 24.1 37.0 0.00 0.51 0.10 59 1021.3
20260905131652 23 260 25.7 37.0 0.00 0.51 0.10 59 1021.2
20260905131621 22 287 25.7 37.0 0.00 0.10 0.10 59 1019.9
20260905131546 23 269 25.7 37.0 0.00 0.51 0.10 59 1021.2
20260905131427 22 273 24.1 37.0 0.00 0.51 0.10 59 1021.3
20260905131327 22 276 25.7 37.0 0.00 0.51 0.10 59 1021.2
20260905131218 22 269 25.7 37.0 0.00 0.51 0.10 59 1021.4
20260905131124 22 252 25.7 38.6 0.00 0.51 0.10 58 1021.4
20260905131027 22 267 27.4 40.2 0.00 0.51 0.10 60 1021.3
20260905130917 22 272 27.4 40.2 0.00 0.51 0.10 59 1021.3
20260905130757 22 287 27.4 45.1 0.00 0.51 0.10 59 1021.3
20260905130659 22 281 27.4 45.1 0.00 0.51 0.10 58 1021.3
20260905130625 22 259 27.4 45.1 0.00 0.10 0.10 59 1020.0
20260905130551 23 272 27.4 45.1 0.00 0.51 0.10 59 1021.3
20260905130437 23 269 30.6 45.1 0.00 0.51 0.10 59 1021.2
20260905130327 22 263 29.0 45.1 0.00 0.51 0.10 60 1021.3
20260905130145 22 278 27.4 45.1 0.00 0.51 0.10 60 1021.3
20260905130047 22 259 29.0 45.1 0.00 0.51 0.10 59 1021.4
20260905130010 22 286 25.7 40.2 0.00 0.10 0.10 59 1020.1
20260905125940 22 280 25.7 40.2 0.00 0.51 0.10 60 1021.4
20260905125839 22 277 29.0 40.2 0.00 0.51 0.10 59 1021.4
20260905125719 22 262 30.6 40.2 0.00 0.51 0.10 60 1021.4
20260905125644 22 275 29.0 48.3 0.00 0.10 0.10 60 1020.1
20260905125615 23 305 29.0 48.3 0.00 0.51 0.10 60 1021.5
20260905125518 23 271 32.2 48.3 0.00 0.51 0.10 59 1021.5
20260905125418 22 281 27.4 48.3 0.00 0.51 0.10 60 1021.4
20260905125309 22 278 25.7 48.3 0.00 0.51 0.10 60 1021.4
20260905125210 22 261 29.0 48.3 0.00 0.51 0.10 60 1021.4
20260905125051 22 255 27.4 48.3 0.00 0.51 0.10 60 1021.4
20260905124957 22 280 29.0 48.3 0.00 0.51 0.10 60 1021.5
20260905124848 22 294 29.0 48.3 0.00 0.51 0.10 60 1021.5
20260905124750 22 276 29.0 41.8 0.00 0.51 0.10 60 1021.5
20260905124653 22 272 32.2 41.8 0.00 0.51 0.10 60 1021.5
20260905124620 22 264 30.6 41.8 0.00 0.10 0.10 60 1020.3
20260905124546 22 274 30.6 40.2 0.00 0.51 0.10 60 1021.5
20260905124449 22 265 29.0 40.2 0.00 0.51 0.10 61 1021.5
20260905124347 22 276 27.4 37.0 0.00 0.51 0.10 60 1021.5
20260905124231 22 282 24.1 40.2 0.00 0.51 0.10 60 1021.5
20260905124123 22 299 27.4 40.2 0.00 0.51 0.10 60 1021.4
20260905124025 23 265 27.4 40.2 0.00 0.51 0.10 60 1021.5
20260905123929 23 262 27.4 40.2 0.00 0.51 0.10 60 1021.5
20260905123819 23 277 25.7 40.2 0.00 0.51 0.10 60 1021.5
20260905123722 23 253 24.1 40.2 0.00 0.51 0.10 62 1021.5
20260905123627 23 269 25.7 40.2 0.00 0.51 0.10 61 1021.5
20260905123554 22 245 25.7 40.2 0.00 0.10 0.10 61 1020.2
20260905123521 23 258 29.0 40.2 0.00 0.51 0.10 61 1021.5
20260905123419 22 255 29.0 40.2 0.00 0.51 0.10 62 1021.5
20260905123321 22 279 25.7 40.2 0.00 0.51 0.10 62 1021.5
20260905123020 22 272 30.6 40.2 0.00 0.51 0.10 61 1021.6
20260905122923 22 273 29.0 40.2 0.00 0.51 0.10 61 1021.4
20260905122815 22 261 27.4 40.2 0.00 0.51 0.10 61 1021.5
20260905122717 22 278 27.4 40.2 0.00 0.51 0.10 62 1021.5
20260905122620 22 288 27.4 43.5 0.00 0.51 0.10 62 1021.5
20260905122543 22 257 27.4 43.5 0.00 0.10 0.10 61 1020.2
20260905122514 22 265 29.0 48.3 0.00 0.51 0.10 61 1021.5
20260905122414 22 277 29.0 48.3 0.00 0.51 0.10 62 1021.5
20260905122315 22 271 25.7 48.3 0.00 0.51 0.10 63 1021.5
20260905122144 22 259 25.7 48.3 0.00 0.51 0.10 65 1021.5
20260905122049 22 276 29.0 48.3 0.00 0.51 0.10 64 1021.5
20260905121951 22 249 30.6 48.3 0.00 0.51 0.10 64 1021.5
20260905121841 22 280 33.8 48.3 0.00 0.51 0.10 64 1021.5
20260905121743 22 246 37.0 48.3 0.00 0.51 0.10 64 1021.5
20260905121645 22 255 33.8 48.3 0.00 0.51 0.10 64 1021.8
20260905121609 21 244 29.0 43.5 0.00 0.10 0.10 64 1020.4
20260905121538 22 238 29.0 38.6 0.00 0.51 0.10 64 1021.6
20260905121445 22 268 30.6 38.6 0.00 0.51 0.10 64 1021.6
20260905121345 22 256 27.4 40.2 0.00 0.51 0.10 65 1021.5
20260905121245 22 259 27.4 40.2 0.00 0.51 0.10 64 1021.6
20260905121138 22 276 27.4 40.2 0.00 0.51 0.10 65 1021.5
20260905121040 22 268 25.7 40.2 0.00 0.51 0.10 66 1021.5
20260905120942 22 277 22.5 40.2 0.00 0.51 0.10 66 1021.5
20260905120833 22 234 22.5 40.2 0.00 0.51 0.10 66 1021.5
20260905120719 22 289 27.4 40.2 0.00 0.51 0.10 65 1021.5
20260905120620 22 278 30.6 40.2 0.00 0.51 0.10 65 1021.5
20260905120550 21 273 29.0 40.2 0.00 0.10 0.10 65 1020.1
20260905120513 22 245 29.0 40.2 0.00 0.51 0.10 66 1021.5
20260905120412 22 263 27.4 43.5 0.00 0.51 0.10 66 1021.5
20260905120252 22 278 29.0 43.5 0.00 0.51 0.10 65 1021.6
20260905120144 22 259 27.4 43.5 0.00 0.51 0.10 65 1021.5
20260905120051 22 272 22.5 43.5 0.00 0.51 0.10 65 1021.5
20260905115907 22 259 29.0 43.5 0.00 0.51 0.10 64 1021.5
20260905115809 21 266 32.2 43.5 0.00 0.51 0.10 65 1021.4
20260905115640 21 274 32.2 43.5 0.00 0.51 0.10 65 1021.4
20260905115542 21 274 29.0 38.6 0.00 0.51 0.10 66 1021.4
20260905115445 21 276 27.4 41.8 0.00 0.51 0.10 65 1021.4
20260905115335 21 251 27.4 41.8 0.00 0.51 0.10 66 1021.5
20260905115219 21 270 25.7 41.8 0.00 0.51 0.10 66 1021.5
20260905115120 21 246 25.7 41.8 0.00 0.51 0.10 66 1021.5
20260905115033 21 272 25.7 41.8 0.00 0.10 0.10 67 1020.1
20260905114953 21 237 29.0 41.8 0.00 0.51 0.10 65 1021.5
20260905114832 21 290 30.6 41.8 0.00 0.51 0.10 66 1021.5
20260905114704 21 269 30.6 45.1 0.00 0.51 0.10 66 1021.6
20260905114544 21 279 29.0 45.1 0.00 0.51 0.10 67 1021.7
20260905114450 21 271 27.4 45.1 0.00 0.51 0.10 67 1021.6
20260905114341 21 276 24.1 45.1 0.00 0.51 0.10 66 1021.6
20260905114241 21 268 24.1 45.1 0.00 0.51 0.10 65 1021.5
20260905114045 21 276 27.4 45.1 0.00 0.10 0.10 64 1020.3
20260905114005 21 265 30.6 45.1 0.00 0.51 0.10 64 1021.5
20260905113844 21 281 27.4 45.1 0.00 0.51 0.10 67 1021.5
20260905113747 21 279 22.5 40.2 0.00 0.51 0.10 66 1021.5
20260905113643 21 272 22.5 41.8 0.00 0.51 0.10 68 1021.6
20260905113524 21 264 24.1 41.8 0.00 0.51 0.10 68 1021.6
20260905113425 21 269 27.4 41.8 0.00 0.51 0.10 66 1021.6
20260905113256 21 291 25.7 41.8 0.00 0.51 0.10 66 1021.7
20260905113157 21 295 27.4 41.8 0.00 0.51 0.10 68 1021.7
20260905113039 21 271 30.6 41.8 0.00 0.51 0.10 67 1021.6
20260905112946 21 257 29.0 41.8 0.00 0.51 0.10 68 1021.8
20260905112815 21 263 24.1 41.8 0.00 0.51 0.10 70 1021.7
20260905112717 21 287 22.5 40.2 0.00 0.51 0.10 69 1021.7
20260905112556 21 280 24.1 40.2 0.00 0.51 0.10 68 1021.8
20260905112531 21 251 22.5 40.2 0.00 0.10 0.10 68 1020.5
20260905112315 21 272 24.1 40.2 0.00 0.51 0.10 70 1021.8
20260905112146 21 272 22.5 40.2 0.00 0.51 0.10 71 1021.8
20260905112053 21 269 24.1 40.2 0.00 0.51 0.10 71 1021.8
20260905111955 21 255 24.1 45.1 0.00 0.51 0.10 70 1021.8
20260905111855 21 265 30.6 45.1 0.00 0.51 0.10 71 1021.9
20260905111725 20 263 29.0 45.1 0.00 0.51 0.10 72 1021.7
20260905111606 20 257 25.7 45.1 0.00 0.51 0.10 73 1021.8
20260905111508 20 273 27.4 45.1 0.00 0.51 0.10 72 1021.8
20260905111359 20 264 30.6 45.1 0.00 0.51 0.10 73 1021.8
20260905111306 20 268 32.2 45.1 0.00 0.51 0.10 72 1021.8
20260905111207 20 277 27.4 38.6 0.00 0.51 0.10 74 1021.8
20260905111141 20 270 24.1 38.6 0.00 0.10 0.10 74 1020.4
20260905111101 20 249 25.7 38.6 0.00 0.51 0.10 75 1021.8
20260905111003 20 282 27.4 38.6 0.00 0.51 0.10 75 1021.8
20260905110903 20 272 25.7 35.4 0.00 0.51 0.10 76 1021.7
20260905110714 20 259 27.4 35.4 0.00 0.51 0.10 76 1021.8
20260905110619 19 259 25.7 37.0 0.00 0.51 0.10 75 1021.8
20260905110458 19 268 22.5 38.6 0.00 0.51 0.10 76 1021.9
20260905110328 19 259 20.9 38.6 0.00 0.51 0.10 76 1021.9
20260905110229 19 265 24.1 38.6 0.00 0.51 0.10 76 1022.0
20260905110110 19 273 24.1 38.6 0.00 0.51 0.10 75 1022.0
20260905105953 19 257 24.1 38.6 0.00 0.51 0.10 75 1021.9
20260905105843 20 266 25.7 38.6 0.00 0.51 0.10 75 1022.0
20260905105749 20 251 25.7 38.6 0.00 0.51 0.10 75 1022.0
20260905105651 20 267 24.1 38.6 0.00 0.51 0.10 75 1021.9
20260905105624 19 280 22.5 38.6 0.00 0.10 0.10 75 1020.6
20260905105544 20 279 22.5 33.8 0.00 0.51 0.10 76 1021.9
20260905105447 20 257 22.5 33.8 0.00 0.51 0.10 77 1021.9
20260905105346 20 275 25.7 37.0 0.00 0.51 0.10 76 1022.0
20260905105238 20 254 25.7 37.0 0.00 0.51 0.10 75 1021.9
20260905105017 20 280 25.7 37.0 0.00 0.51 0.10 75 1021.9
20260905104844 20 271 24.1 45.1 0.00 0.51 0.10 76 1021.8
20260905104725 20 274 27.4 45.1 0.00 0.51 0.10 77 1021.9
20260905104627 20 268 27.4 45.1 0.00 0.51 0.10 77 1021.9
20260905104613 20 284 27.4 45.1 0.00 0.10 0.10 77 1020.6
20260905104521 20 243 27.4 45.1 0.00 0.51 0.10 78 1021.9
20260905104418 20 276 24.1 45.1 0.00 0.51 0.10 77 1021.9
20260905104325 20 276 24.1 45.1 0.00 0.51 0.10 76 1021.9
20260905104225 20 283 29.0 45.1 0.00 0.51 0.10 76 1022.0
20260905104141 19 284 30.6 45.1 0.00 0.10 0.10 76 1020.7
20260905104055 20 265 32.2 45.1 0.00 0.51 0.10 75 1022.0
20260905103957 20 272 27.4 38.6 0.00 0.51 0.10 77 1021.9
20260905103827 20 281 29.0 41.8 0.00 0.51 0.10 76 1021.9
20260905103729 20 261 30.6 41.8 0.00 0.51 0.10 77 1021.9
20260905103631 20 278 27.4 41.8 0.00 0.51 0.10 76 1021.8
20260905103516 20 276 27.4 41.8 0.00 0.51 0.10 76 1021.8
20260905103405 20 278 30.6 41.8 0.00 0.51 0.10 75 1021.9
20260905103307 20 274 29.0 41.8 0.00 0.51 0.10 77 1021.9
20260905103206 20 264 25.7 41.8 0.00 0.51 0.10 77 1021.9
20260905103143 20 269 25.7 41.8 0.00 0.10 0.10 77 1020.5
20260905103059 20 268 27.4 41.8 0.00 0.51 0.10 77 1021.8
20260905103000 20 250 29.0 41.8 0.00 0.51 0.10 77 1021.9
20260905102905 20 266 25.7 33.8 0.00 0.51 0.10 80 1021.9
20260905102757 20 274 20.9 33.8 0.00 0.51 0.10 80 1021.7
20260905102700 20 289 20.9 32.2 0.00 0.51 0.10 81 1021.7
20260905102602 20 276 22.5 32.2 0.00 0.51 0.10 80 1021.8
20260905102531 19 263 22.5 32.2 0.00 0.10 0.10 80 1020.5
20260905102454 20 282 22.5 32.2 0.00 0.51 0.10 83 1021.9
20260905102311 20 264 22.5 30.6 0.00 0.51 0.10 83 1021.8
20260905102203 20 284 19.3 29.0 0.00 0.51 0.10 82 1021.8
20260905102137 19 286 19.3 29.0 0.00 0.10 0.10 83 1020.5
20260905102100 19 247 19.3 29.0 0.00 0.51 0.10 84 1021.7
20260905102001 19 262 20.9 29.0 0.00 0.51 0.10 84 1021.8
20260905101902 19 276 20.9 29.0 0.00 0.51 0.10 83 1021.7
20260905101733 19 273 19.3 29.0 0.00 0.51 0.10 83 1021.7
20260905101635 19 265 19.3 29.0 0.00 0.51 0.10 83 1021.7
20260905101537 19 247 19.3 29.0 0.00 0.51 0.10 83 1021.7
20260905101420 19 265 22.5 30.6 0.00 0.51 0.10 84 1021.7
20260905101250 19 266 20.9 30.6 0.00 0.51 0.10 85 1021.7
20260905101133 19 264 20.9 30.6 0.00 0.51 0.10 86 1021.7
20260905101111 18 257 20.9 30.6 0.00 0.10 0.10 86 1020.3
20260905101025 18 276 22.5 30.6 0.00 0.51 0.10 86 1021.7
20260905100927 18 245 20.9 30.6 0.00 0.51 0.10 85 1021.8
20260905100827 18 278 22.5 30.6 0.00 0.51 0.10 86 1021.8
20260905100723 18 259 24.1 30.6 0.00 0.51 0.10 87 1021.8
20260905100625 18 268 24.1 30.6 0.00 0.51 0.10 87 1021.8
20260905100526 18 251 22.5 30.6 0.00 0.51 0.10 87 1021.8
20260905100416 18 244 24.1 30.6 0.00 0.51 0.10 87 1021.8
20260905100317 18 258 24.1 30.6 0.00 0.51 0.10 87 1021.8
20260905100217 18 263 22.5 30.6 0.00 0.51 0.10 87 1021.9
20260905100126 17 239 20.9 30.6 0.00 0.10 0.10 87 1020.5
20260905100049 18 261 20.9 30.6 0.00 0.51 0.10 86 1021.9
20260905095804 18 282 19.3 27.4 0.00 0.51 0.10 86 1021.9
20260905095658 18 261 19.3 25.7 0.00 0.51 0.10 86 1021.9
20260905095601 18 252 19.3 25.7 0.00 0.51 0.10 87 1022.0
20260905095504 18 255 19.3 25.7 0.00 0.51 0.10 87 1021.9
20260905095355 18 276 19.3 25.7 0.00 0.51 0.10 87 1021.9
20260905095256 18 278 16.1 25.7 0.00 0.51 0.10 88 1021.9
20260905095119 17 269 16.1 25.7 0.00 0.51 0.10 88 1022.1
20260905095021 17 273 16.1 25.7 0.00 0.51 0.10 88 1022.1
20260905094851 17 290 14.5 25.7 0.00 0.51 0.10 88 1022.1
20260905094755 17 269 16.1 25.7 0.00 0.51 0.10 88 1022.1
20260905094719 17 275 17.7 25.7 0.00 0.10 0.10 88 1020.7
20260905094655 17 279 17.7 25.7 0.00 0.51 0.10 88 1022.1
20260905094549 17 290 17.7 25.7 0.00 0.51 0.10 88 1022.2
20260905094454 17 277 16.1 24.1 0.00 0.51 0.10 87 1022.2
20260905094353 17 278 17.7 24.1 0.00 0.51 0.10 87 1022.2
20260905094116 17 287 16.1 22.5 0.00 0.51 0.10 87 1022.1
20260905094019 17 267 14.5 22.5 0.00 0.51 0.10 88 1022.1
20260905093910 17 255 14.5 20.9 0.00 0.51 0.10 88 1022.0
20260905093750 17 272 16.1 20.9 0.00 0.51 0.10 87 1022.1
20260905093655 17 274 16.1 20.9 0.00 0.51 0.10 87 1021.9
20260905093620 17 270 14.5 20.9 0.00 0.10 0.10 88 1020.6
20260905093549 17 257 14.5 20.9 0.00 0.51 0.10 88 1022.0
20260905093452 17 276 12.9 20.9 0.00 0.51 0.10 88 1021.9
20260905093351 17 256 14.5 20.9 0.00 0.51 0.10 88 1021.9
20260905093243 17 263 17.7 20.9 0.00 0.51 0.10 88 1021.9
20260905093145 17 268 17.7 20.9 0.00 0.51 0.10 88 1021.9
20260905093047 17 265 16.1 20.9 0.00 0.51 0.10 88 1021.9
20260905092954 17 275 16.1 20.9 0.00 0.51 0.10 88 1021.9
20260905092842 17 272 16.1 20.9 0.00 0.51 0.10 88 1021.8
20260905092744 17 255 16.1 29.0 0.00 0.51 0.10 88 1021.7
20260905092648 17 269 16.1 29.0 0.00 0.51 0.10 89 1021.8
20260905092625 17 260 14.5 29.0 0.00 0.10 0.10 89 1020.4
20260905092540 17 265 14.5 29.0 0.00 0.51 0.10 89 1021.8
20260905092441 17 259 14.5 29.0 0.00 0.51 0.10 89 1021.8
20260905092343 17 258 16.1 29.0 0.00 0.51 0.10 89 1021.8
20260905092234 17 268 16.1 29.0 0.00 0.51 0.10 89 1021.9
20260905092137 17 259 17.7 29.0 0.00 0.51 0.10 89 1021.9
20260905092019 17 255 20.9 29.0 0.00 0.51 0.10 89 1021.8
20260905091911 17 228 19.3 27.4 0.00 0.51 0.10 89 1021.9
20260905091812 17 246 16.1 24.1 0.00 0.51 0.10 89 1021.9
20260905091654 17 243 16.1 24.1 0.00 0.51 0.10 89 1022.0
20260905091626 17 244 14.5 24.1 0.00 0.10 0.10 89 1020.6
20260905091529 17 247 14.5 24.1 0.00 0.51 0.10 89 1022.0
20260905091431 17 253 14.5 24.1 0.00 0.51 0.10 89 1022.0
20260905091331 17 260 14.5 24.1 0.10 0.51 0.10 89 1021.9
20260905091202 17 256 19.3 24.1 0.10 0.51 0.10 89 1022.0
20260905091104 17 252 19.3 24.1 0.10 0.51 0.10 89 1022.0
20260905091007 17 253 16.1 24.1 0.10 0.51 0.10 89 1022.0
20260905090831 17 270 17.7 24.1 0.10 0.51 0.10 89 1022.1
20260905090732 17 256 17.7 24.1 0.10 0.51 0.10 90 1022.2
20260905090611 17 259 17.7 24.1 0.10 0.51 0.10 89 1022.2
20260905090539 17 269 16.1 25.7 0.03 0.10 0.10 89 1020.7
20260905090504 17 268 17.7 25.7 0.10 0.51 0.10 90 1022.2
20260905090404 17 272 17.7 25.7 0.10 0.51 0.10 90 1022.2
20260905090305 17 257 17.7 25.7 0.10 0.51 0.10 90 1022.1
20260905090154 17 281 17.7 25.7 0.10 0.51 0.10 90 1022.1
20260905090004 17 251 17.7 25.7 0.10 0.51 0.10 90 1022.1
20260905085854 17 277 19.3 25.7 0.10 0.51 0.10 90 1022.1
20260905085755 17 257 20.9 25.7 0.10 0.51 0.10 90 1022.0
20260905085658 17 266 20.9 25.7 0.10 0.51 0.10 90 1022.0
20260905085624 16 270 19.3 25.7 0.03 0.10 0.10 91 1020.6
20260905085551 17 261 19.3 24.1 0.10 0.51 0.10 91 1022.0
20260905085459 17 272 17.7 24.1 0.10 0.51 0.10 91 1021.9
20260905085358 17 272 17.7 24.1 0.10 0.51 0.10 91 1021.9
20260905085300 17 259 19.3 24.1 0.10 0.51 0.10 91 1021.9
20260905085134 17 250 17.7 24.1 0.20 0.51 0.10 91 1021.9
20260905085036 17 253 17.7 24.1 0.20 0.51 0.10 91 1022.0
20260905085009 16 249 16.1 24.1 0.05 0.10 0.10 91 1020.5
20260905084926 17 255 17.7 24.1 0.20 0.51 0.10 91 1021.9
20260905084811 17 260 19.3 25.7 0.20 0.51 0.10 91 1021.9
20260905084712 16 234 19.3 25.7 0.20 0.51 0.10 91 1021.8
20260905084646 16 273 17.7 25.7 0.05 0.10 0.10 91 1020.5
20260905084605 17 257 17.7 25.7 0.20 0.51 0.10 91 1021.8
20260905084509 17 261 17.7 25.7 0.20 0.51 0.10 91 1021.8
20260905084408 16 255 16.1 25.7 0.20 0.51 0.10 91 1021.8
20260905084301 16 261 16.1 25.7 0.20 0.51 0.10 91 1021.9
20260905084203 17 246 17.7 25.7 0.30 0.51 0.10 91 1021.9
20260905084110 17 243 19.3 25.7 0.30 0.51 0.10 91 1021.9
20260905084034 16 243 17.7 25.7 0.05 0.10 0.10 91 1020.5
20260905084003 17 237 17.7 25.7 0.30 0.51 0.10 91 1022.0
20260905083902 17 252 16.1 24.1 0.30 0.51 0.10 91 1022.0
20260905083741 17 254 17.7 24.1 0.30 0.51 0.10 91 1022.1
20260905083635 17 265 16.1 24.1 0.41 0.51 0.10 91 1022.1
20260905083405 17 261 16.1 19.3 0.51 0.51 0.10 91 1022.1
20260905083302 16 272 14.5 19.3 0.51 0.51 0.10 92 1022.1
20260905083143 16 270 12.9 19.3 0.51 0.51 0.10 91 1022.0
20260905083045 16 257 11.3 19.3 0.51 0.51 0.10 91 1021.9
20260905082949 16 265 11.3 19.3 0.51 0.51 0.10 91 1022.1
20260905082840 16 268 12.9 19.3 0.51 0.51 0.10 91 1022.0
20260905082722 16 252 12.9 19.3 0.51 0.51 0.10 91 1022.0
20260905082627 16 257 14.5 19.3 0.51 0.51 0.10 91 1022.0
20260905082601 16 263 12.9 19.3 0.10 0.10 0.10 91 1020.7
20260905082519 16 245 12.9 19.3 0.51 0.51 0.10 91 1022.1
20260905082422 16 243 12.9 16.1 0.51 0.51 0.10 91 1022.1
20260905082322 16 260 11.3 16.1 0.51 0.51 0.10 91 1022.1
20260905082214 16 257 8.0 11.3 0.51 0.51 0.10 91 1022.0
20260905082116 16 243 6.4 9.7 0.51 0.51 0.10 91 1022.0
20260905082018 16 231 6.4 9.7 0.51 0.51 0.10 91 1022.1
20260905081833 16 249 6.4 9.7 0.51 0.51 0.10 91 1022.0
20260905081735 16 239 6.4 9.7 0.51 0.51 0.10 91 1022.0
20260905081628 16 240 6.4 9.7 0.51 0.51 0.10 91 1022.0
20260905081528 16 249 4.8 6.4 0.51 0.51 0.10 90 1022.0
20260905081431 16 255 4.8 6.4 0.51 0.51 0.10 90 1021.9
20260905081319 16 257 1.6 6.4 0.41 0.41 0.08 90 1021.9
20260905081142 16 257 1.6 6.4 0.41 0.41 0.08 90 1022.0
20260905081044 16 257 1.6 6.4 0.41 0.41 0.08 90 1022.0
20260905081008 16 257 1.6 6.4 0.08 0.08 0.08 90 1020.7
20260905080934 16 257 3.2 6.4 0.41 0.41 0.08 89 1022.2
20260905080814 16 257 3.2 6.4 0.41 0.41 0.08 89 1022.1
20260905080717 16 257 3.2 6.4 0.41 0.41 0.08 89 1022.2
20260905080644 16 257 3.2 6.4 0.08 0.08 0.08 89 1020.7
20260905080609 17 257 4.8 6.4 0.41 0.41 0.08 89 1022.2
20260905080516 17 257 3.2 6.4 0.41 0.41 0.08 89 1022.1
20260905080414 17 259 1.6 4.8 0.41 0.41 0.08 89 1022.2
20260905080306 16 259 0.0 6.4 0.41 0.41 0.08 89 1022.2
20260905080206 16 259 0.0 6.4 0.41 0.41 0.08 89 1022.2
20260905080108 16 259 0.0 6.4 0.41 0.41 0.08 89 1022.2
20260905080031 16 259 0.0 6.4 0.08 0.08 0.08 89 1020.7
20260905080000 16 259 1.6 6.4 0.41 0.41 0.08 89 1022.2
20260905075858 16 259 1.6 6.4 0.41 0.41 0.08 89 1022.2
20260905075804 16 259 1.6 6.4 0.41 0.41 0.08 89 1022.2
20260905075707 16 259 3.2 6.4 0.41 0.41 0.08 88 1022.2
20260905075620 16 259 3.2 6.4 0.08 0.08 0.08 88 1020.8
20260905075539 16 259 3.2 6.4 0.41 0.41 0.08 88 1022.2
20260905075440 16 259 3.2 4.8 0.41 0.41 0.08 88 1022.2
20260905075341 16 259 3.2 4.8 0.41 0.41 0.08 87 1022.2
20260905075212 17 259 3.2 4.8 0.30 0.30 0.05 87 1022.2
20260905075119 17 259 1.6 4.8 0.30 0.30 0.05 87 1022.2
20260905075021 17 259 3.2 4.8 0.30 0.30 0.05 87 1022.2
20260905074832 17 259 3.2 6.4 0.30 0.30 0.05 86 1022.2
20260905074735 17 259 1.6 6.4 0.30 0.30 0.05 86 1022.2
20260905074626 17 259 1.6 6.4 0.30 0.30 0.05 85 1022.2
20260905074529 17 259 3.2 6.4 0.30 0.30 0.05 85 1022.2
20260905074412 17 259 3.2 6.4 0.30 0.30 0.05 85 1022.2
20260905074303 17 259 3.2 6.4 0.30 0.30 0.05 84 1022.2
20260905074204 17 259 4.8 6.4 0.20 0.20 0.05 84 1022.2
20260905074107 17 259 4.8 6.4 0.20 0.20 0.05 84 1022.2
20260905074030 17 259 4.8 6.4 0.05 0.05 0.05 84 1020.8
20260905074000 17 259 4.8 6.4 0.20 0.20 0.05 83 1022.2
20260905073838 17 259 4.8 6.4 0.20 0.20 0.05 83 1022.2
20260905073739 17 259 4.8 6.4 0.20 0.20 0.05 82 1022.2
20260905073643 17 259 4.8 6.4 0.10 0.10 0.03 82 1022.2
20260905073621 17 258 3.2 6.4 0.03 0.03 0.03 82 1020.8
20260905073536 17 257 1.6 6.4 0.10 0.10 0.03 81 1022.1
20260905073415 17 257 0.0 0.0 0.00 0.00 0.00 81 1022.1
20260905073318 17 257 0.0 0.0 0.00 0.00 0.00 81 1022.0
20260905073210 17 257 0.0 0.0 0.00 0.00 0.00 81 1022.1
20260905073111 17 257 0.0 0.0 0.00 0.00 0.00 80 1022.0
20260905072956 17 257 0.0 0.0 0.00 0.00 0.00 80 1022.1
20260905072847 17 257 0.0 0.0 0.00 0.00 0.00 80 1022.0
20260905072750 17 257 0.0 0.0 0.00 0.00 0.00 80 1021.9
20260905072630 17 257 0.0 0.0 0.00 0.00 0.00 80 1021.8
20260905072602 17 257 0.0 0.0 0.00 0.00 0.00 80 1020.4
20260905072523 17 257 0.0 0.0 0.00 0.00 0.00 80 1021.8
20260905072425 17 257 0.0 0.0 0.00 0.00 0.00 80 1021.8
20260905072325 17 257 0.0 0.0 0.00 0.00 0.00 79 1021.8
20260905072210 17 257 0.0 0.0 0.00 0.00 0.00 79 1021.8
20260905072147 17 257 0.0 0.0 0.00 0.00 0.00 79 1020.4
20260905072102 17 257 0.0 0.0 0.00 0.00 0.00 79 1021.9
20260905072005 17 257 0.0 0.0 0.00 0.00 0.00 80 1021.9
20260905071906 17 257 0.0 0.0 0.00 0.00 0.00 80 1021.8
20260905071758 17 257 0.0 0.0 0.00 0.00 0.00 80 1021.8
20260905071657 17 257 0.0 0.0 0.00 0.00 0.00 80 1021.8
20260905071545 17 257 0.0 0.0 0.00 0.00 0.00 80 1021.8
20260905071412 17 257 0.0 0.0 0.00 0.00 0.00 79 1021.8
20260905071253 17 257 0.0 0.0 0.00 0.00 0.00 79 1021.8
20260905071154 17 257 0.0 0.0 0.00 0.00 0.00 79 1021.8
20260905071127 17 257 0.0 0.0 0.00 0.00 0.00 79 1020.4
20260905071047 17 257 0.0 0.0 0.00 0.00 0.00 79 1021.8
20260905070950 17 257 0.0 0.0 0.00 0.00 0.00 79 1021.8
20260905070849 17 257 0.0 0.0 0.00 0.00 0.00 80 1021.8
20260905070745 17 257 0.0 0.0 0.00 0.00 0.00 81 1021.8
20260905070648 17 257 0.0 0.0 0.00 0.00 0.00 81 1021.9
20260905070549 17 257 0.0 0.0 0.00 0.00 0.00 80 1022.1
20260905070520 17 257 0.0 0.0 0.00 0.00 0.00 81 1020.6
20260905070444 17 257 0.0 0.0 0.00 0.00 0.00 81 1022.2
20260905070343 17 257 0.0 0.0 0.00 0.00 0.00 80 1022.3
20260905070243 17 257 0.0 3.2 0.00 0.00 0.00 79 1022.2
20260905070141 17 257 0.0 3.2 0.00 0.00 0.00 79 1022.1
20260905070022 17 257 0.0 4.8 0.00 0.00 0.00 79 1022.1
20260905065900 17 257 0.0 4.8 0.00 0.00 0.00 79 1022.1
20260905065751 17 257 0.0 4.8 0.00 0.00 0.00 79 1022.1
20260905065653 17 257 0.0 4.8 0.00 0.00 0.00 79 1022.2
20260905065556 17 257 0.0 4.8 0.00 0.00 0.00 79 1022.2
20260905065529 17 257 0.0 4.8 0.00 0.00 0.00 79 1020.7
20260905065449 17 257 1.6 4.8 0.00 0.00 0.00 79 1022.2
20260905065334 17 257 3.2 4.8 0.00 0.00 0.00 79 1022.1
20260905065057 17 257 0.0 3.2 0.00 0.00 0.00 77 1021.9
20260905064937 17 257 0.0 6.4 0.00 0.00 0.00 77 1021.9
20260905064827 17 257 0.0 8.0 0.00 0.00 0.00 75 1021.9
20260905064648 17 257 0.0 8.0 0.00 0.00 0.00 75 1021.9
20260905064518 17 257 0.0 8.0 0.00 0.00 0.00 75 1020.4
20260905064445 17 257 1.6 8.0 0.00 0.00 0.00 75 1021.8
20260905064345 17 257 3.2 8.0 0.00 0.00 0.00 76 1021.7
20260905064246 17 257 4.8 8.0 0.00 0.00 0.00 76 1021.6
20260905064139 17 257 4.8 8.0 0.00 0.00 0.00 77 1021.5
20260905064041 17 257 6.4 8.0 0.00 0.00 0.00 78 1021.5
20260905063922 17 236 6.4 8.0 0.00 0.00 0.00 78 1021.4
20260905063825 17 236 4.8 8.0 0.00 0.00 0.00 78 1021.4
20260905063720 17 245 4.8 6.4 0.00 0.00 0.00 77 1021.4
20260905063620 17 256 4.8 6.4 0.00 0.00 0.00 77 1021.4
20260905063523 17 257 4.8 6.4 0.00 0.00 0.00 77 1021.4
20260905063352 17 257 3.2 4.8 0.00 0.00 0.00 76 1021.4
20260905063255 17 257 3.2 8.0 0.00 0.00 0.00 76 1021.5
20260905063159 17 257 1.6 8.0 0.00 0.00 0.00 75 1021.5
20260905063127 17 257 1.6 8.0 0.00 0.00 0.00 75 1020.1
20260905063052 17 257 1.6 8.0 0.00 0.00 0.00 75 1021.5
20260905062955 17 257 0.0 8.0 0.00 0.00 0.00 75 1021.5
20260905062853 17 257 0.0 11.3 0.00 0.00 0.00 75 1021.5
20260905062724 17 257 1.6 11.3 0.00 0.00 0.00 75 1021.4
20260905062604 17 257 3.2 14.5 0.00 0.00 0.00 74 1021.4
20260905062508 17 257 4.8 14.5 0.00 0.00 0.00 74 1021.4
20260905062402 17 242 4.8 14.5 0.00 0.00 0.00 74 1021.3
20260905062306 17 238 4.8 14.5 0.00 0.00 0.00 74 1021.2
20260905062125 17 240 8.0 14.5 0.00 0.00 0.00 73 1021.1
20260905062028 17 265 8.0 14.5 0.00 0.00 0.00 73 1021.1
20260905062004 17 264 8.0 14.5 0.00 0.00 0.00 73 1019.9
20260905061918 18 245 9.7 14.5 0.00 0.00 0.00 73 1021.5
20260905061818 18 247 6.4 14.5 0.00 0.00 0.00 72 1021.5
20260905061723 18 289 1.6 11.3 0.00 0.00 0.00 72 1021.4
20260905061640 17 289 0.0 11.3 0.00 0.00 0.00 72 1019.9
20260905061555 18 289 1.6 11.3 0.00 0.00 0.00 71 1021.4
20260905061437 18 306 1.6 12.9 0.00 0.00 0.00 71 1021.6
20260905061316 18 306 3.2 12.9 0.00 0.00 0.00 71 1022.4
20260905061206 18 286 4.8 12.9 0.00 0.00 0.00 71 1022.6
20260905061108 18 275 8.0 12.9 0.00 0.00 0.00 71 1022.7
20260905061011 18 274 4.8 12.9 0.00 0.00 0.00 70 1022.6
20260905060845 18 312 4.8 12.9 0.00 0.00 0.00 70 1022.3
20260905060724 18 30 6.4 12.9 0.00 0.00 0.00 69 1021.8
20260905060606 18 31 3.2 12.9 0.00 0.00 0.00 69 1021.9
20260905060538 18 68 1.6 12.9 0.00 0.00 0.00 69 1020.5
20260905060458 18 70 0.0 6.4 0.00 0.00 0.00 69 1022.0
20260905060357 18 70 1.6 6.4 0.00 0.00 0.00 69 1021.8
20260905060259 18 57 3.2 6.4 0.00 0.00 0.00 69 1021.5
20260905060027 18 64 3.2 11.3 0.00 0.00 0.00 68 1021.2
20260905055904 18 65 3.2 11.3 0.00 0.00 0.00 68 1021.1
20260905055758 18 76 1.6 11.3 0.00 0.00 0.00 67 1021.0
20260905055700 18 76 1.6 11.3 0.00 0.00 0.00 67 1021.0
20260905055601 18 76 3.2 11.3 0.00 0.00 0.00 67 1020.8
20260905055530 18 76 4.8 11.3 0.00 0.00 0.00 67 1019.3
20260905055434 18 95 6.4 11.3 0.00 0.00 0.00 67 1020.5
20260905055337 18 100 6.4 17.7 0.00 0.00 0.00 67 1020.3
20260905055216 18 66 6.4 17.7 0.00 0.00 0.00 66 1020.4
20260905055057 18 55 6.4 17.7 0.00 0.00 0.00 66 1020.4
20260905055033 18 78 4.8 17.7 0.00 0.00 0.00 66 1019.0
20260905054948 18 100 4.8 17.7 0.00 0.00 0.00 67 1020.4
20260905054848 18 97 4.8 17.7 0.00 0.00 0.00 66 1020.4
20260905054751 18 89 4.8 17.7 0.00 0.00 0.00 66 1020.5
20260905054645 18 22 6.4 17.7 0.00 0.00 0.00 66 1020.6
20260905054552 18 317 6.4 19.3 0.00 0.00 0.00 66 1020.7
20260905054454 18 16 4.8 24.1 0.00 0.00 0.00 65 1020.8
20260905054325 18 62 6.4 24.1 0.00 0.00 0.00 65 1020.9
20260905054226 18 66 8.0 24.1 0.00 0.00 0.00 65 1020.7
20260905054129 18 87 8.0 24.1 0.00 0.00 0.00 65 1020.6
20260905054101 18 97 6.4 24.1 0.00 0.00 0.00 65 1019.0
20260905054021 18 108 8.0 24.1 0.00 0.00 0.00 64 1020.5
20260905053928 18 82 9.7 24.1 0.00 0.00 0.00 64 1020.5
20260905053805 19 69 14.5 24.1 0.00 0.00 0.00 64 1020.3
20260905053658 19 68 9.7 24.1 0.00 0.00 0.00 64 1020.3
20260905053539 19 42 4.8 25.7 0.00 0.00 0.00 64 1020.3
20260905053418 19 78 3.2 25.7 0.00 0.00 0.00 64 1020.5
20260905053249 19 349 6.4 27.4 0.00 0.00 0.00 63 1020.5
20260905053152 19 85 8.0 27.4 0.00 0.00 0.00 63 1020.4
20260905053058 19 80 11.3 27.4 0.00 0.00 0.00 63 1020.2
20260905053002 19 32 11.3 27.4 0.00 0.00 0.00 63 1018.6
20260905052931 19 89 12.9 27.4 0.00 0.00 0.00 63 1020.1
20260905052808 19 35 17.7 27.4 0.00 0.00 0.00 63 1020.1
20260905052606 19 56 16.1 27.4 0.00 0.00 0.00 61 1018.5
20260905052532 20 68 16.1 27.4 0.00 0.00 0.00 60 1019.9
20260905052435 20 84 16.1 27.4 0.00 0.00 0.00 60 1019.9
20260905052333 20 70 16.1 27.4 0.00 0.00 0.00 60 1019.9
20260905052229 20 66 14.5 27.4 0.00 0.00 0.00 60 1019.8
20260905052110 20 95 14.5 27.4 0.00 0.00 0.00 60 1019.8
20260905052012 20 80 14.5 27.4 0.00 0.00 0.00 59 1019.8
20260905051914 20 80 16.1 27.4 0.00 0.00 0.00 59 1019.8
20260905051804 20 60 17.7 27.4 0.00 0.00 0.00 59 1019.7
20260905051706 20 65 14.5 27.4 0.00 0.00 0.00 59 1019.5
20260905051530 20 69 9.7 22.5 0.00 0.00 0.00 60 1019.4
20260905051515 20 80 8.0 22.5 0.00 0.00 0.00 60 1017.8
20260905051422 20 70 8.0 22.5 0.00 0.00 0.00 60 1019.2
20260905051321 20 73 8.0 22.5 0.00 0.00 0.00 60 1019.3
20260905051221 20 51 11.3 22.5 0.00 0.00 0.00 60 1019.3
20260905051135 20 66 12.9 22.5 0.00 0.00 0.00 60 1017.9
20260905051053 20 103 11.3 22.5 0.00 0.00 0.00 60 1019.3
20260905050823 20 60 6.4 14.5 0.00 0.00 0.00 61 1019.4
20260905050721 20 85 4.8 12.9 0.00 0.00 0.00 61 1019.5
20260905050623 20 22 6.4 12.9 0.00 0.00 0.00 61 1019.6
20260905050527 20 56 4.8 11.3 0.00 0.00 0.00 62 1019.6
20260905050417 20 46 4.8 11.3 0.00 0.00 0.00 62 1019.2
20260905050258 20 74 6.4 11.3 0.00 0.00 0.00 62 1019.1
20260905050155 20 53 6.4 11.3 0.00 0.00 0.00 63 1018.9
20260905050124 19 47 6.4 11.3 0.00 0.00 0.00 64 1017.4
20260905050049 20 73 6.4 9.7 0.00 0.00 0.00 64 1018.8
20260905045956 20 79 6.4 9.7 0.00 0.00 0.00 64 1018.8
20260905045856 20 45 4.8 9.7 0.00 0.00 0.00 64 1018.8
20260905045749 20 70 3.2 16.1 0.00 0.00 0.00 64 1018.8
20260905045652 20 31 3.2 16.1 0.00 0.00 0.00 65 1018.7
20260905045554 20 59 4.8 16.1 0.00 0.00 0.00 66 1018.6
20260905045427 20 84 4.8 16.1 0.00 0.00 0.00 67 1018.5
20260905045138 20 57 8.0 16.1 0.00 0.00 0.00 68 1018.4
20260905045102 19 89 8.0 16.1 0.00 0.00 0.00 68 1016.8
20260905045009 20 101 9.7 16.1 0.00 0.00 0.00 69 1018.2
20260905044908 20 107 8.0 14.5 0.00 0.00 0.00 72 1018.2
20260905044748 20 87 6.4 11.3 0.00 0.00 0.00 73 1018.2
20260905044654 19 85 4.8 9.7 0.00 0.00 0.00 73 1016.6
20260905044620 20 93 4.8 8.0 0.00 0.00 0.00 73 1018.1
20260905044522 20 91 4.8 6.4 0.00 0.00 0.00 72 1018.1
20260905044426 20 91 3.2 6.4 0.00 0.00 0.00 72 1018.1
20260905044256 20 91 3.2 9.7 0.00 0.00 0.00 71 1018.1
20260905044154 20 91 3.2 9.7 0.00 0.00 0.00 72 1018.1
20260905044036 20 91 3.2 9.7 0.00 0.00 0.00 72 1018.1
20260905043929 20 91 3.2 9.7 0.00 0.00 0.00 72 1018.0
20260905043830 20 91 3.2 9.7 0.00 0.00 0.00 72 1018.0
20260905043732 20 91 4.8 9.7 0.00 0.00 0.00 72 1018.0
20260905043617 20 91 4.8 9.7 0.00 0.00 0.00 71 1018.0
20260905043530 20 91 4.8 9.7 0.00 0.00 0.00 71 1016.5
20260905043449 20 89 4.8 9.7 0.00 0.00 0.00 71 1017.9
20260905043350 20 95 3.2 9.7 0.00 0.00 0.00 71 1017.9
20260905043250 20 63 1.6 9.7 0.00 0.00 0.00 71 1018.0
20260905043142 20 63 0.0 9.7 0.00 0.00 0.00 71 1018.0
20260905043044 20 63 0.0 9.7 0.00 0.00 0.00 71 1018.1
20260905042950 20 63 0.0 9.7 0.00 0.00 0.00 72 1018.1
20260905042841 20 63 4.8 9.7 0.00 0.00 0.00 71 1018.0
20260905042722 20 62 6.4 9.7 0.00 0.00 0.00 71 1018.0
20260905042624 20 52 4.8 16.1 0.00 0.00 0.00 72 1017.9
20260905042535 20 28 3.2 16.1 0.00 0.00 0.00 72 1016.4
20260905042456 20 78 4.8 19.3 0.00 0.00 0.00 72 1017.8
20260905042335 20 1 6.4 19.3 0.00 0.00 0.00 72 1017.8
20260905042234 20 72 4.8 19.3 0.00 0.00 0.00 72 1017.8
20260905042132 20 41 4.8 19.3 0.00 0.00 0.00 72 1017.7
20260905041902 20 52 8.0 19.3 0.00 0.00 0.00 71 1017.6
20260905041732 20 77 11.3 19.3 0.00 0.00 0.00 72 1017.4
20260905041634 20 73 11.3 19.3 0.00 0.00 0.00 71 1017.4
20260905041537 21 65 12.9 19.3 0.00 0.00 0.00 71 1017.4
20260905041406 21 74 12.9 19.3 0.00 0.00 0.00 71 1017.4
20260905041312 21 60 9.7 20.9 0.00 0.00 0.00 72 1017.5
20260905041211 21 76 4.8 20.9 0.00 0.00 0.00 72 1017.6
20260905041141 21 16 3.2 20.9 0.00 0.00 0.00 72 1016.1
20260905041104 21 48 4.8 20.9 0.00 0.00 0.00 72 1017.5
20260905041007 21 55 8.0 20.9 0.00 0.00 0.00 71 1017.3
20260905040906 21 62 9.7 20.9 0.00 0.00 0.00 70 1017.3
20260905040757 21 97 8.0 20.9 0.00 0.00 0.00 70 1017.3
20260905040702 21 110 11.3 20.9 0.00 0.00 0.00 71 1017.2
20260905040544 21 82 14.5 20.9 0.00 0.00 0.00 71 1017.2
20260905040508 21 83 12.9 20.9 0.00 0.00 0.00 71 1015.6
20260905040434 21 79 11.3 20.9 0.00 0.00 0.00 72 1017.3
20260905040146 21 99 9.7 20.9 0.00 0.00 0.00 73 1017.3
20260905040113 21 70 9.7 20.9 0.00 0.00 0.00 73 1015.6
20260905040040 21 87 11.3 20.9 0.00 0.00 0.00 73 1017.2
20260905035919 21 80 12.9 20.9 0.00 0.00 0.00 74 1017.2
20260905035826 21 75 16.1 20.9 0.00 0.00 0.00 76 1016.9
20260905035655 21 101 12.9 19.3 0.00 0.00 0.00 76 1016.9
20260905035538 21 99 11.3 19.3 0.00 0.00 0.00 76 1016.8
20260905035441 21 85 12.9 19.3 0.00 0.00 0.00 77 1016.5
20260905035331 21 80 9.7 19.3 0.00 0.00 0.00 79 1016.6
20260905035233 21 103 3.2 14.5 0.00 0.00 0.00 79 1016.8
20260905035135 21 6 3.2 14.5 0.00 0.00 0.00 79 1017.2
20260905035101 20 321 3.2 14.5 0.00 0.00 0.00 79 1016.1
20260905035033 21 311 6.4 14.5 0.00 0.00 0.00 79 1017.5
20260905034935 21 248 6.4 17.7 0.00 0.00 0.00 79 1017.6
20260905034835 21 265 6.4 17.7 0.00 0.00 0.00 79 1017.5
20260905034727 21 72 8.0 17.7 0.00 0.00 0.00 80 1017.3
20260905034627 21 96 8.0 17.7 0.00 0.00 0.00 80 1017.2
20260905034530 21 86 6.4 17.7 0.00 0.00 0.00 80 1017.2
20260905034413 21 85 8.0 17.7 0.00 0.00 0.00 80 1017.1
20260905034244 21 87 9.7 17.7 0.00 0.00 0.00 80 1017.0
20260905034124 21 104 12.9 17.7 0.00 0.00 0.00 80 1017.0
20260905034026 21 57 9.7 16.1 0.00 0.00 0.00 80 1017.1
20260905034002 20 80 8.0 16.1 0.00 0.00 0.00 80 1015.5
20260905033917 21 60 8.0 14.5 0.00 0.00 0.00 80 1017.0
20260905033819 21 92 8.0 14.5 0.00 0.00 0.00 80 1016.8
20260905033709 21 58 8.0 14.5 0.00 0.00 0.00 80 1016.8
20260905033555 21 55 8.0 14.5 0.00 0.00 0.00 79 1016.7
20260905033458 21 66 6.4 11.3 0.00 0.00 0.00 79 1016.7
20260905033357 21 50 6.4 11.3 0.00 0.00 0.00 79 1016.6
20260905033249 21 52 6.4 11.3 0.00 0.00 0.00 79 1016.6
20260905033149 21 90 6.4 11.3 0.00 0.00 0.00 80 1016.5
20260905033051 21 55 6.4 8.0 0.00 0.00 0.00 80 1016.6
20260905033029 20 60 4.8 8.0 0.00 0.00 0.00 80 1015.1
20260905032948 21 37 6.4 8.0 0.00 0.00 0.00 80 1016.5
20260905032848 21 60 4.8 6.4 0.00 0.00 0.00 80 1016.6
20260905032728 21 45 1.6 6.4 0.00 0.00 0.00 81 1016.5
20260905032619 21 248 0.0 0.0 0.00 0.00 0.00 80 1016.5
20260905032523 21 248 0.0 0.0 0.00 0.00 0.00 80 1016.5
20260905032400 21 248 0.0 3.2 0.00 0.00 0.00 81 1016.4
20260905032254 21 248 0.0 3.2 0.00 0.00 0.00 81 1016.4
20260905032158 21 248 0.0 4.8 0.00 0.00 0.00 81 1016.4
20260905032100 21 248 0.0 6.4 0.00 0.00 0.00 80 1016.4
20260905032034 20 248 0.0 6.4 0.00 0.00 0.00 80 1014.9
20260905031954 21 248 0.0 6.4 0.00 0.00 0.00 80 1016.4
20260905031854 21 248 0.0 8.0 0.00 0.00 0.00 80 1016.4
20260905031756 21 248 0.0 8.0 0.00 0.00 0.00 81 1016.3
20260905031651 21 248 1.6 8.0 0.00 0.00 0.00 81 1016.3
20260905031611 21 248 3.2 11.3 0.00 0.00 0.00 81 1016.2
20260905031454 21 248 3.2 11.3 0.00 0.00 0.00 81 1016.2
20260905031353 21 248 3.2 11.3 0.00 0.00 0.00 81 1016.1
20260905030948 21 257 6.4 14.5 0.00 0.00 0.00 81 1016.0
20260905030840 21 263 6.4 14.5 0.00 0.00 0.00 81 1016.0
20260905030743 21 259 6.4 14.5 0.00 0.00 0.00 81 1015.9
20260905030627 21 261 8.0 14.5 0.00 0.00 0.00 81 1015.9
20260905030600 20 268 6.4 16.1 0.00 0.00 0.00 81 1014.4
20260905030519 21 279 8.0 16.1 0.00 0.00 0.00 81 1015.9
20260905030423 21 246 8.0 16.1 0.00 0.00 0.00 81 1015.9
20260905030301 21 245 9.7 16.1 0.00 0.00 0.00 81 1015.9
20260905030153 20 247 9.7 16.1 0.00 0.00 0.00 81 1016.0
20260905030056 20 244 9.7 16.1 0.00 0.00 0.00 81 1016.0
20260905025934 20 262 11.3 16.1 0.00 0.00 0.00 81 1015.9
20260905025811 20 253 11.3 16.1 0.00 0.00 0.00 81 1015.9
20260905025713 20 245 11.3 17.7 0.00 0.00 0.00 81 1015.8
20260905025615 20 245 11.3 16.1 0.00 0.00 0.00 81 1015.8
20260905025522 20 251 11.3 16.1 0.00 0.00 0.00 81 1014.3
20260905025316 20 251 11.3 14.5 0.00 0.00 0.00 81 1015.9
20260905025217 20 251 11.3 14.5 0.00 0.00 0.00 81 1015.8
20260905025129 20 240 9.7 16.1 0.00 0.00 0.00 81 1014.3
20260905025034 20 238 8.0 14.5 0.00 0.00 0.00 81 1015.8
20260905024938 20 251 9.7 14.5 0.00 0.00 0.00 80 1015.8
20260905024829 20 241 9.7 14.5 0.00 0.00 0.00 80 1015.8
20260905024711 20 238 11.3 14.5 0.00 0.00 0.00 80 1015.9
20260905024613 20 253 11.3 14.5 0.00 0.00 0.00 80 1015.8
20260905024600 20 251 11.3 14.5 0.00 0.00 0.00 79 1014.3
20260905024506 20 255 11.3 14.5 0.00 0.00 0.00 79 1015.8
20260905024324 20 253 11.3 14.5 0.00 0.00 0.00 79 1015.9
20260905024228 20 268 9.7 14.5 0.00 0.00 0.00 79 1015.8
20260905024131 20 270 9.7 14.5 0.00 0.00 0.00 79 1014.3
20260905024040 20 265 11.3 14.5 0.00 0.00 0.00 79 1015.8
20260905023939 21 270 11.3 14.5 0.00 0.00 0.00 79 1015.8
20260905023821 21 260 11.3 14.5 0.00 0.00 0.00 78 1015.8
20260905023603 21 252 9.7 16.1 0.00 0.00 0.00 78 1015.8
20260905023445 21 253 9.7 16.1 0.00 0.00 0.00 78 1015.6
20260905023348 21 252 11.3 17.7 0.00 0.00 0.00 77 1015.6
20260905023248 21 258 12.9 17.7 0.00 0.00 0.00 77 1015.5
20260905023141 21 245 12.9 22.5 0.00 0.00 0.00 77 1015.5
20260905023043 21 261 11.3 22.5 0.00 0.00 0.00 76 1015.5
20260905023005 20 247 11.3 22.5 0.00 0.00 0.00 76 1014.0
20260905022933 21 253 11.3 22.5 0.00 0.00 0.00 76 1015.5
20260905022814 21 246 12.9 22.5 0.00 0.00 0.00 76 1015.4
20260905022717 21 236 14.5 22.5 0.00 0.00 0.00 76 1015.5
20260905022624 21 236 12.9 22.5 0.00 0.00 0.00 75 1015.5
20260905022602 20 236 12.9 22.5 0.00 0.00 0.00 75 1014.0
20260905022515 21 245 14.5 22.5 0.00 0.00 0.00 75 1015.5
20260905022354 21 238 14.5 22.5 0.00 0.00 0.00 75 1015.5
20260905022257 21 247 14.5 19.3 0.00 0.00 0.00 75 1015.6
20260905022150 21 217 16.1 22.5 0.00 0.00 0.00 75 1015.5
20260905022053 21 259 14.5 29.0 0.00 0.00 0.00 74 1015.5
20260905021959 21 249 12.9 29.0 0.00 0.00 0.00 74 1015.5
20260905021849 21 247 11.3 30.6 0.00 0.00 0.00 74 1015.4
20260905021733 21 231 11.3 30.6 0.00 0.00 0.00 74 1015.4
20260905021653 21 238 11.3 30.6 0.00 0.00 0.00 74 1015.4
20260905021629 21 240 11.3 30.6 0.00 0.00 0.00 73 1013.9
20260905021547 21 236 12.9 30.6 0.00 0.00 0.00 72 1015.4
20260905021449 21 243 17.7 40.2 0.00 0.00 0.00 72 1015.3
20260905021326 21 240 20.9 40.2 0.00 0.00 0.00 71 1015.4
20260905021220 22 210 20.9 40.2 0.00 0.00 0.00 70 1015.3
20260905021123 22 247 19.3 40.2 0.00 0.00 0.00 69 1015.4
20260905021024 22 249 17.7 40.2 0.00 0.00 0.00 69 1015.4
20260905020853 22 250 19.3 40.2 0.00 0.00 0.00 68 1015.4
20260905020756 22 273 27.4 40.2 0.00 0.00 0.00 66 1015.4
20260905020616 22 235 30.6 40.2 0.00 0.00 0.00 63 1015.4
20260905020549 22 237 29.0 40.2 0.00 0.00 0.00 63 1014.0
20260905020513 23 265 27.4 38.6 0.00 0.00 0.00 62 1015.4
20260905020413 22 234 22.5 35.4 0.00 0.00 0.00 60 1015.6
20260905020316 22 236 19.3 24.1 0.00 0.00 0.00 60 1015.4
20260905020208 22 269 17.7 20.9 0.00 0.00 0.00 59 1015.3
20260905020109 22 249 17.7 20.9 0.00 0.00 0.00 59 1015.3
20260905015950 22 240 17.7 20.9 0.00 0.00 0.00 59 1015.3
20260905015840 22 267 14.5 19.3 0.00 0.00 0.00 59 1015.2
20260905015726 22 271 12.9 14.5 0.00 0.00 0.00 60 1015.2
20260905015629 22 259 11.3 12.9 0.00 0.00 0.00 60 1015.1
20260905015554 22 260 9.7 14.5 0.00 0.00 0.00 60 1013.6
20260905015523 22 266 9.7 12.9 0.00 0.00 0.00 60 1015.1
20260905015425 22 263 8.0 12.9 0.00 0.00 0.00 59 1015.0
20260905015325 22 252 6.4 12.9 0.00 0.00 0.00 59 1015.0
20260905015216 22 250 1.6 9.7 0.00 0.00 0.00 59 1015.0
20260905015122 22 309 0.0 8.0 0.00 0.00 0.00 59 1015.0
20260905015023 22 309 0.0 8.0 0.00 0.00 0.00 59 1014.9
20260905014853 22 309 0.0 8.0 0.00 0.00 0.00 59 1014.9
20260905014754 22 309 3.2 8.0 0.00 0.00 0.00 59 1015.0
20260905014656 22 322 4.8 8.0 0.00 0.00 0.00 59 1014.9
20260905014623 22 322 3.2 8.0 0.00 0.00 0.00 59 1013.5
20260905014550 22 309 4.8 8.0 0.00 0.00 0.00 59 1015.0
20260905014436 22 322 3.2 11.3 0.00 0.00 0.00 59 1015.0
20260905014326 22 334 1.6 11.3 0.00 0.00 0.00 58 1014.9
20260905014226 22 292 1.6 11.3 0.00 0.00 0.00 58 1015.0
20260905014127 22 292 3.2 11.3 0.00 0.00 0.00 58 1015.0
20260905014031 22 292 3.2 11.3 0.00 0.00 0.00 58 1013.5
20260905013958 23 286 3.2 11.3 0.00 0.00 0.00 58 1014.9
20260905013857 23 286 4.8 14.5 0.00 0.00 0.00 58 1014.9
20260905013759 23 286 4.8 14.5 0.00 0.00 0.00 58 1014.9
20260905013706 23 286 4.8 14.5 0.00 0.00 0.00 58 1014.8
20260905013644 22 283 3.2 14.5 0.00 0.00 0.00 58 1013.4
20260905013558 23 277 3.2 16.1 0.00 0.00 0.00 58 1014.8
20260905013415 23 277 4.8 17.7 0.00 0.00 0.00 58 1014.9
20260905013307 23 276 6.4 17.7 0.00 0.00 0.00 58 1014.8
20260905013150 23 274 8.0 17.7 0.00 0.00 0.00 58 1014.8
20260905013110 23 265 9.7 17.7 0.00 0.00 0.00 58 1014.8
20260905012951 23 268 11.3 17.7 0.00 0.00 0.00 58 1014.8
20260905012243 22 247 12.9 24.1 0.00 0.00 0.00 59 1014.7
20260905012145 22 270 14.5 24.1 0.00 0.00 0.00 59 1014.7
20260905012053 22 245 14.5 24.1 0.00 0.00 0.00 59 1013.2
20260905012016 22 241 17.7 24.1 0.00 0.00 0.00 59 1014.6
20260905011856 22 261 14.5 24.1 0.00 0.00 0.00 59 1014.6
20260905011757 22 270 12.9 24.1 0.00 0.00 0.00 59 1014.7
20260905011653 22 270 14.5 24.1 0.00 0.00 0.00 59 1014.6
20260905011535 22 251 16.1 24.1 0.00 0.00 0.00 59 1014.6
20260905011438 22 266 17.7 24.1 0.00 0.00 0.00 60 1014.6
20260905011328 22 245 16.1 24.1 0.00 0.00 0.00 60 1014.7
20260905011229 22 225 12.9 22.5 0.00 0.00 0.00 60 1014.7
20260905011049 22 243 11.3 17.7 0.00 0.00 0.00 60 1014.7
20260905011019 22 267 9.7 17.7 0.00 0.00 0.00 60 1013.2
20260905010945 22 259 11.3 17.7 0.00 0.00 0.00 60 1014.7
20260905010845 22 238 11.3 17.7 0.00 0.00 0.00 60 1014.7
20260905010746 22 249 11.3 17.7 0.00 0.00 0.00 60 1014.7
20260905010639 22 251 11.3 17.7 0.00 0.00 0.00 60 1014.7
20260905010540 22 256 9.7 19.3 0.00 0.00 0.00 60 1014.7
20260905010442 22 268 9.7 19.3 0.00 0.00 0.00 60 1014.7
20260905010334 22 262 12.9 19.3 0.00 0.00 0.00 60 1014.7
20260905010218 22 247 14.5 19.3 0.00 0.00 0.00 60 1014.7
20260905010120 22 255 14.5 19.3 0.00 0.00 0.00 60 1014.7
20260905010053 22 252 12.9 19.3 0.00 0.00 0.00 60 1013.3
20260905010016 22 253 12.9 19.3 0.00 0.00 0.00 60 1014.7
20260905005915 22 245 14.5 19.3 0.00 0.00 0.00 60 1014.8
20260905005818 22 250 12.9 17.7 0.00 0.00 0.00 60 1014.7
20260905005649 22 260 12.9 17.7 0.00 0.00 0.00 60 1014.8
20260905005555 22 265 12.9 17.7 0.00 0.00 0.00 60 1014.7
20260905005455 22 259 12.9 17.7 0.00 0.00 0.00 60 1014.7
20260905005357 22 253 12.9 17.7 0.00 0.00 0.00 60 1014.7
20260905005245 22 250 11.3 17.7 0.00 0.00 0.00 60 1014.7
20260905005147 22 253 9.7 19.3 0.00 0.00 0.00 60 1014.7
20260905005048 22 263 9.7 19.3 0.00 0.00 0.00 60 1014.6
20260905005028 22 263 9.7 19.3 0.00 0.00 0.00 60 1013.2
20260905004943 22 261 11.3 19.3 0.00 0.00 0.00 60 1014.6
20260905004827 22 255 11.3 19.3 0.00 0.00 0.00 61 1014.7
20260905004728 22 255 12.9 19.3 0.00 0.00 0.00 61 1014.6
20260905004659 22 274 11.3 19.3 0.00 0.00 0.00 61 1013.1
20260905004620 22 251 12.9 19.3 0.00 0.00 0.00 61 1014.6
20260905004521 22 256 12.9 19.3 0.00 0.00 0.00 61 1014.6
20260905004424 22 255 14.5 19.3 0.00 0.00 0.00 61 1014.6
20260905004312 22 265 12.9 19.3 0.00 0.00 0.00 62 1014.6
20260905004217 22 251 12.9 19.3 0.00 0.00 0.00 62 1014.5
20260905004119 22 259 12.9 19.3 0.00 0.00 0.00 62 1014.5
20260905004047 21 257 11.3 19.3 0.00 0.00 0.00 62 1013.0
20260905004013 22 261 9.7 19.3 0.00 0.00 0.00 62 1014.4
20260905003912 21 261 9.7 14.5 0.00 0.00 0.00 62 1014.5
20260905003814 21 250 8.0 14.5 0.00 0.00 0.00 62 1014.5
20260905003645 21 268 8.0 14.5 0.00 0.00 0.00 62 1014.5
20260905003546 21 264 8.0 14.5 0.00 0.00 0.00 62 1014.6
20260905003453 21 268 6.4 12.9 0.00 0.00 0.00 63 1014.6
20260905003323 21 271 8.0 12.9 0.00 0.00 0.00 63 1014.6
20260905003223 21 263 8.0 11.3 0.00 0.00 0.00 63 1014.6
20260905003104 21 262 6.4 11.3 0.00 0.00 0.00 63 1014.5
20260905003030 21 259 4.8 11.3 0.00 0.00 0.00 63 1013.1
20260905002957 21 272 6.4 11.3 0.00 0.00 0.00 63 1014.5
20260905002857 21 267 6.4 11.3 0.00 0.00 0.00 63 1014.6
20260905002802 21 269 6.4 11.3 0.00 0.00 0.00 63 1014.6
20260905002655 21 266 4.8 11.3 0.00 0.00 0.00 63 1014.6
20260905002535 21 280 4.8 11.3 0.00 0.00 0.00 63 1014.5
20260905002436 21 280 4.8 11.3 0.00 0.00 0.00 63 1014.5
20260905002325 21 280 6.4 11.3 0.00 0.00 0.00 63 1014.5
20260905002205 21 265 6.4 11.3 0.00 0.00 0.00 63 1014.5
20260905002107 21 288 3.2 6.4 0.00 0.00 0.00 63 1014.5
20260905001951 21 288 3.2 6.4 0.00 0.00 0.00 63 1014.5
20260905001841 21 288 3.2 9.7 0.00 0.00 0.00 63 1014.5
20260905001721 21 288 3.2 9.7 0.00 0.00 0.00 64 1014.5
20260905001644 21 288 3.2 12.9 0.00 0.00 0.00 64 1013.1
20260905001613 21 288 4.8 12.9 0.00 0.00 0.00 64 1014.5
20260905001434 21 288 6.4 12.9 0.00 0.00 0.00 64 1014.5
20260905001334 21 288 4.8 12.9 0.00 0.00 0.00 64 1014.5
20260905001206 21 288 4.8 12.9 0.00 0.00 0.00 64 1014.5
20260905001046 21 292 4.8 12.9 0.00 0.00 0.00 64 1014.4
20260905000948 20 278 8.0 12.9 0.00 0.00 0.00 65 1014.4
20260905000817 20 277 9.7 12.9 0.00 0.00 0.00 65 1014.4
20260905000719 20 284 8.0 12.9 0.00 0.00 0.00 66 1014.4
20260905000621 20 280 6.4 11.3 0.00 0.00 0.00 66 1014.3
20260905000559 20 274 4.8 9.7 0.00 0.00 0.00 66 1012.9
20260905000520 20 297 4.8 8.0 0.00 0.00 0.00 66 1014.3
20260905000419 20 294 4.8 9.7 0.00 0.00 0.00 66 1014.3
20260905000319 20 285 3.2 9.7 0.00 0.00 0.00 67 1014.3
20260905000211 20 288 0.0 4.8 0.00 0.00 0.00 67 1014.3
20260905000112 20 288 0.0 4.8 0.00 0.00 0.00 67 1014.2
20260905000016 20 288 0.0 4.8 0.00 0.00 0.00 67 1014.2
20260904235906 20 288 0.0 4.8 0.00 0.00 0.00 68 1014.2
20260904235812 20 288 0.0 6.4 0.00 0.00 0.00 67 1014.2
20260904235714 20 288 1.6 6.4 0.00 0.00 0.00 68 1014.3
20260904235636 19 288 1.6 6.4 0.00 0.00 0.00 68 1012.9
20260904235607 20 288 1.6 6.4 0.00 0.00 0.00 68 1014.2
20260904235449 19 288 1.6 6.4 0.00 0.00 0.00 69 1014.2
20260904235347 19 288 3.2 6.4 0.00 0.00 0.00 69 1014.2
20260904235238 19 288 3.2 6.4 0.00 0.00 0.00 69 1014.2
20260904235144 19 286 3.2 6.4 0.00 0.00 0.00 70 1014.3
20260904235024 19 287 3.2 6.4 0.00 0.00 0.00 70 1014.2
20260904234914 18 286 4.8 6.4 0.00 0.00 0.00 70 1014.2
20260904234816 18 285 4.8 6.4 0.00 0.00 0.00 70 1014.3
20260904234656 18 272 3.2 6.4 0.00 0.00 0.00 70 1014.2
20260904234617 18 261 1.6 4.8 0.00 0.00 0.00 71 1012.8
20260904234547 18 311 1.6 4.8 0.00 0.00 0.00 71 1014.2
20260904234448 18 75 0.0 3.2 0.00 0.00 0.00 71 1014.2
20260904234334 18 75 0.0 0.0 0.00 0.00 0.00 71 1014.2
20260904234223 18 75 0.0 0.0 0.00 0.00 0.00 72 1014.2
20260904234104 18 75 0.0 0.0 0.00 0.00 0.00 72 1014.2
20260904234008 18 75 0.0 0.0 0.00 0.00 0.00 71 1014.2
20260904233837 18 75 0.0 0.0 0.00 0.00 0.00 71 1014.2
20260904233738 18 75 0.0 0.0 0.00 0.00 0.00 71 1014.2
20260904233643 18 75 0.0 0.0 0.00 0.00 0.00 71 1014.2
20260904233617 18 75 0.0 0.0 0.00 0.00 0.00 71 1012.8
20260904233534 18 75 0.0 0.0 0.00 0.00 0.00 72 1014.2
20260904233437 18 75 0.0 0.0 0.00 0.00 0.00 72 1014.2
20260904233355 18 75 0.0 0.0 0.00 0.00 0.00 71 1014.2
20260904233257 18 75 0.0 0.0 0.00 0.00 0.00 72 1014.2
20260904233148 18 75 0.0 0.0 0.00 0.00 0.00 71 1014.2
20260904233051 18 75 0.0 0.0 0.00 0.00 0.00 72 1014.2
20260904232959 18 75 0.0 0.0 0.00 0.00 0.00 72 1014.2
20260904232916 18 75 0.0 0.0 0.00 0.00 0.00 72 1014.2
20260904232748 18 75 0.0 0.0 0.00 0.00 0.00 72 1014.2
20260904232651 18 75 0.0 0.0 0.00 0.00 0.00 72 1014.2
20260904232552 18 75 0.0 0.0 0.00 0.00 0.00 71 1014.2
20260904232527 18 75 0.0 3.2 0.00 0.00 0.00 71 1012.8
20260904232446 18 75 0.0 3.2 0.00 0.00 0.00 72 1014.1
20260904232326 18 75 0.0 3.2 0.00 0.00 0.00 72 1014.2
20260904232209 18 75 0.0 3.2 0.00 0.00 0.00 72 1014.2
20260904232142 18 75 0.0 3.2 0.00 0.00 0.00 72 1012.8
20260904232102 18 75 0.0 3.2 0.00 0.00 0.00 72 1014.2
20260904232005 18 75 0.0 3.2 0.00 0.00 0.00 72 1014.2
20260904231922 18 75 0.0 3.2 0.00 0.00 0.00 72 1014.1
20260904231803 18 75 0.0 3.2 0.00 0.00 0.00 72 1014.2
20260904231655 18 75 1.6 3.2 0.00 0.00 0.00 72 1014.2
20260904231536 18 75 0.0 3.2 0.00 0.00 0.00 72 1014.2
20260904231439 18 75 1.6 3.2 0.00 0.00 0.00 72 1014.2
20260904231311 18 75 1.6 3.2 0.00 0.00 0.00 72 1014.2
20260904231132 18 75 0.0 0.0 0.00 0.00 0.00 72 1014.2
20260904231107 18 75 0.0 0.0 0.00 0.00 0.00 73 1012.8
20260904231026 18 75 0.0 0.0 0.00 0.00 0.00 72 1014.2
20260904230928 18 75 0.0 0.0 0.00 0.00 0.00 72 1014.1
20260904230828 18 75 0.0 0.0 0.00 0.00 0.00 72 1014.2
20260904230705 18 75 0.0 0.0 0.00 0.00 0.00 72 1014.1
20260904230607 18 75 0.0 0.0 0.00 0.00 0.00 72 1014.2
20260904230508 18 75 0.0 0.0 0.00 0.00 0.00 72 1014.1
20260904230358 18 75 0.0 0.0 0.00 0.00 0.00 72 1014.1
20260904230259 18 75 0.0 0.0 0.00 0.00 0.00 72 1014.0
20260904230158 18 75 0.0 0.0 0.00 0.00 0.00 72 1014.0
20260904230134 18 75 0.0 0.0 0.00 0.00 0.00 72 1012.6
20260904230034 18 75 0.0 0.0 0.00 0.00 0.00 72 1014.0
20260904225936 18 75 0.0 0.0 0.00 0.00 0.00 72 1014.0
20260904225806 18 75 0.0 0.0 0.00 0.00 0.00 72 1014.0
20260904225541 18 75 0.0 0.0 0.00 0.00 0.00 72 1013.9
20260904225509 18 75 0.0 0.0 0.00 0.00 0.00 72 1012.5
20260904225410 18 75 0.0 1.6 0.00 0.00 0.00 72 1013.9
20260904225313 18 75 0.0 1.6 0.00 0.00 0.00 72 1013.9
20260904225217 18 75 0.0 1.6 0.00 0.00 0.00 73 1013.9
20260904225145 18 75 0.0 1.6 0.00 0.00 0.00 73 1012.5
20260904225110 18 75 0.0 1.6 0.00 0.00 0.00 72 1013.9
20260904225013 18 75 0.0 1.6 0.00 0.00 0.00 73 1013.9
20260904224851 18 75 0.0 1.6 0.00 0.00 0.00 72 1013.9
20260904224743 18 75 0.0 1.6 0.00 0.00 0.00 72 1013.9
20260904224644 18 75 0.0 0.0 0.00 0.00 0.00 72 1013.9
20260904224410 18 75 0.0 0.0 0.00 0.00 0.00 72 1013.9
20260904224240 18 75 0.0 0.0 0.00 0.00 0.00 72 1013.9
20260904224142 18 75 0.0 0.0 0.00 0.00 0.00 72 1013.9
20260904224043 18 75 0.0 0.0 0.00 0.00 0.00 72 1013.9
20260904224017 18 75 0.0 0.0 0.00 0.00 0.00 72 1012.5
20260904223938 18 75 0.0 0.0 0.00 0.00 0.00 72 1013.8
20260904223843 18 75 0.0 0.0 0.00 0.00 0.00 72 1013.9
20260904223744 18 75 0.0 0.0 0.00 0.00 0.00 72 1013.8
20260904223636 18 75 0.0 0.0 0.00 0.00 0.00 72 1013.8